DW2803 Weather Reports


time (UTC)temp
F
wind
direction
speed
knots
gust
knots
rain 1hr
in
rain 24hr
in
rain mn
in
humidity
%
barometer
mb
20260506051325 66 307 5.2 9.6 0.00 0.00 0.00 45 1012.1
20260506051209 66 308 5.2 9.6 0.00 0.00 0.00 45 1012.0
20260506051126 66 291 5.2 9.6 0.00 0.00 0.00 45 1012.1
20260506051027 66 298 6.1 9.6 0.00 0.00 0.00 45 1012.0
20260506050913 66 308 6.1 9.6 0.00 0.00 0.00 45 1012.1
20260506050823 66 312 6.1 9.6 0.00 0.00 0.00 45 1012.0
20260506050709 66 314 6.1 9.6 0.00 0.00 0.00 45 1012.1
20260506050630 66 297 6.1 9.6 0.00 0.00 0.00 46 1012.0
20260506050524 66 313 6.1 9.6 0.00 0.00 0.00 46 1012.0
20260506050410 66 310 5.2 8.7 0.00 0.00 0.00 46 1012.0
20260506050342 66 293 5.2 7.8 0.00 0.00 0.00 46 1012.0
20260506050231 66 305 5.2 7.8 0.00 0.00 0.00 46 1012.0
20260506050132 66 292 5.2 7.8 0.00 0.00 0.00 47 1012.0
20260506045015 66 305 3.5 7.0 0.00 0.00 0.00 46 1011.8
20260506044941 66 292 4.3 7.0 0.00 0.00 0.00 46 1011.8
20260506044853 66 309 4.3 7.0 0.00 0.00 0.00 46 1011.7
20260506044708 66 298 4.3 7.0 0.00 0.00 0.00 46 1011.7
20260506044653 66 305 3.5 7.0 0.00 0.00 0.00 46 1011.7
20260506044546 66 312 3.5 7.0 0.00 0.00 0.00 47 1011.7
20260506044429 66 291 3.5 7.0 0.00 0.00 0.00 47 1011.6
20260506044315 66 299 3.5 7.0 0.00 0.00 0.00 47 1011.6
20260506044215 66 354 3.5 7.0 0.00 0.00 0.00 47 1011.6
20260506044127 65 316 3.5 7.0 0.00 0.00 0.00 47 1011.5
20260506044021 65 280 3.5 5.2 0.00 0.00 0.00 47 1011.5
20260506043907 65 319 3.5 5.2 0.00 0.00 0.00 47 1011.5
20260506043812 65 313 2.6 5.2 0.00 0.00 0.00 48 1011.5
20260506043730 65 297 2.6 5.2 0.00 0.00 0.00 48 1011.4
20260506043624 65 308 2.6 5.2 0.00 0.00 0.00 48 1011.4
20260506043519 65 311 2.6 5.2 0.00 0.00 0.00 48 1011.3
20260506043405 65 289 2.6 4.3 0.00 0.00 0.00 48 1011.4
20260506043317 65 292 2.6 4.3 0.00 0.00 0.00 48 1011.3
20260506043233 65 310 1.7 4.3 0.00 0.00 0.00 48 1011.3
20260506043128 65 290 1.7 4.3 0.00 0.00 0.00 48 1011.3
20260506043023 65 302 2.6 4.3 0.00 0.00 0.00 48 1011.3
20260506042935 65 322 2.6 4.3 0.00 0.00 0.00 48 1011.3
20260506042841 65 281 2.6 3.5 0.00 0.00 0.00 48 1011.3
20260506042705 66 285 1.7 3.5 0.00 0.00 0.00 48 1011.3
20260506042627 66 303 1.7 2.6 0.00 0.00 0.00 48 1011.3
20260506042506 66 298 0.9 2.6 0.00 0.00 0.00 48 1011.3
20260506042438 66 295 1.7 2.6 0.00 0.00 0.00 48 1011.2
20260506042323 66 266 1.7 3.5 0.00 0.00 0.00 48 1011.2
20260506042209 66 287 1.7 3.5 0.00 0.00 0.00 48 1011.3
20260506042130 66 296 1.7 3.5 0.00 0.00 0.00 47 1011.3
20260506042025 66 291 1.7 3.5 0.00 0.00 0.00 47 1011.2
20260506041915 67 299 1.7 4.3 0.00 0.00 0.00 47 1011.3
20260506041820 67 298 1.7 4.3 0.00 0.00 0.00 46 1011.3
20260506041706 67 297 1.7 4.3 0.00 0.00 0.00 46 1011.2
20260506041650 67 299 1.7 4.3 0.00 0.00 0.00 46 1011.2
20260506041524 67 290 1.7 6.1 0.00 0.00 0.00 46 1011.2
20260506041436 67 302 1.7 6.1 0.00 0.00 0.00 46 1011.2
20260506041305 67 294 1.7 6.1 0.00 0.00 0.00 46 1011.2
20260506041211 67 302 2.6 6.1 0.00 0.00 0.00 45 1011.2
20260506041132 67 312 2.6 6.1 0.00 0.00 0.00 45 1011.2
20260506041007 67 281 3.5 6.1 0.00 0.00 0.00 45 1011.2
20260506040913 67 301 3.5 6.1 0.00 0.00 0.00 45 1011.1
20260506040818 67 314 3.5 6.1 0.00 0.00 0.00 45 1011.1
20260506040735 67 287 2.6 6.1 0.00 0.00 0.00 45 1011.0
20260506040651 67 307 1.7 6.1 0.00 0.00 0.00 45 1010.9
20260506040532 67 312 2.6 6.1 0.00 0.00 0.00 45 1011.0
20260506040409 67 293 2.6 6.1 0.00 0.00 0.00 45 1010.9
20260506040314 67 290 3.5 6.1 0.00 0.00 0.00 45 1011.0
20260506040210 67 293 3.5 6.1 0.00 0.00 0.00 45 1011.0
20260506040143 68 295 3.5 5.2 0.00 0.00 0.00 45 1010.8
20260506040021 67 310 3.5 6.1 0.00 0.00 0.00 45 1010.8
20260506035906 67 296 3.5 6.1 0.00 0.00 0.00 45 1010.8
20260506035819 67 323 3.5 6.1 0.00 0.00 0.00 45 1010.7
20260506035736 67 296 3.5 6.1 0.00 0.00 0.00 45 1010.7
20260506035648 67 311 3.5 6.1 0.00 0.00 0.00 45 1010.8
20260506035522 67 297 3.5 5.2 0.00 0.00 0.00 45 1010.7
20260506035438 67 295 3.5 5.2 0.00 0.00 0.00 45 1010.7
20260506035320 67 341 3.5 6.1 0.00 0.00 0.00 46 1010.6
20260506035214 67 291 4.3 7.0 0.00 0.00 0.00 46 1010.6
20260506035125 67 286 4.3 7.0 0.00 0.00 0.00 46 1010.6
20260506035020 67 318 4.3 7.0 0.00 0.00 0.00 47 1010.6
20260506034933 67 310 4.3 7.0 0.00 0.00 0.00 47 1010.6
20260506034819 67 311 4.3 7.0 0.00 0.00 0.00 47 1010.6
20260506034714 67 316 4.3 7.0 0.00 0.00 0.00 47 1010.6
20260506034647 67 310 4.3 7.0 0.00 0.00 0.00 48 1010.6
20260506034521 67 296 5.2 7.0 0.00 0.00 0.00 48 1010.6
20260506034407 67 297 4.3 7.0 0.00 0.00 0.00 48 1010.6
20260506034312 67 322 4.3 7.0 0.00 0.00 0.00 48 1010.5
20260506034211 67 298 5.2 7.0 0.00 0.00 0.00 47 1010.6
20260506034123 67 299 4.3 6.1 0.00 0.00 0.00 47 1010.5
20260506034017 67 309 4.3 6.1 0.00 0.00 0.00 47 1010.5
20260506033930 67 310 4.3 5.2 0.00 0.00 0.00 47 1010.5
20260506033836 67 283 4.3 6.1 0.00 0.00 0.00 47 1010.5
20260506033732 67 322 4.3 5.2 0.00 0.00 0.00 47 1010.5
20260506033625 67 311 3.5 5.2 0.00 0.00 0.00 47 1010.4
20260506033528 68 299 3.5 5.2 0.00 0.00 0.00 46 1010.5
20260506033413 68 288 3.5 5.2 0.00 0.00 0.00 46 1010.4
20260506033317 68 294 4.3 5.2 0.00 0.00 0.00 46 1010.4
20260506033211 68 301 4.3 6.1 0.00 0.00 0.00 46 1010.4
20260506033146 68 299 4.3 6.1 0.00 0.00 0.00 46 1010.4
20260506033027 68 310 4.3 6.1 0.00 0.00 0.00 45 1010.4
20260506032907 68 287 3.5 6.1 0.00 0.00 0.00 45 1010.4
20260506032813 68 289 4.3 6.1 0.00 0.00 0.00 45 1010.3
20260506032709 69 289 3.5 6.1 0.00 0.00 0.00 45 1010.3
20260506032620 69 310 3.5 6.1 0.00 0.00 0.00 45 1010.3
20260506032514 69 298 3.5 6.1 0.00 0.00 0.00 44 1010.3
20260506032431 69 297 3.5 6.1 0.00 0.00 0.00 44 1010.3
20260506032316 69 293 3.5 6.1 0.00 0.00 0.00 44 1010.3
20260506032212 69 295 3.5 5.2 0.00 0.00 0.00 44 1010.0
20260506032124 69 297 3.5 5.2 0.00 0.00 0.00 44 1010.1
20260506032038 69 290 3.5 6.1 0.00 0.00 0.00 44 1010.1
20260506031930 69 312 3.5 6.1 0.00 0.00 0.00 44 1010.0
20260506031820 70 287 3.5 6.1 0.00 0.00 0.00 43 1010.0
20260506031705 70 296 3.5 6.1 0.00 0.00 0.00 43 1009.8
20260506031621 70 289 3.5 6.1 0.00 0.00 0.00 43 1010.0
20260506031519 70 276 3.5 6.1 0.00 0.00 0.00 43 1009.8
20260506031404 70 287 3.5 6.1 0.00 0.00 0.00 43 1009.8
20260506031310 70 311 3.5 6.1 0.00 0.00 0.00 43 1009.8
20260506031209 70 306 2.6 6.1 0.00 0.00 0.00 43 1009.8
20260506031118 70 303 3.5 6.1 0.00 0.00 0.00 42 1009.8
20260506031012 70 274 3.5 6.1 0.00 0.00 0.00 42 1009.8
20260506030946 71 295 2.6 6.1 0.00 0.00 0.00 42 1009.7
20260506030810 71 301 3.5 7.0 0.00 0.00 0.00 42 1009.8
20260506030710 71 303 3.5 7.0 0.00 0.00 0.00 41 1009.7
20260506030643 71 290 3.5 7.0 0.00 0.00 0.00 41 1009.7
20260506030516 71 295 3.5 7.0 0.00 0.00 0.00 41 1009.7
20260506030449 72 315 3.5 7.0 0.00 0.00 0.00 40 1009.7
20260506030334 72 285 2.6 7.0 0.00 0.00 0.00 40 1009.7
20260506030210 72 280 3.5 7.0 0.00 0.00 0.00 40 1009.7
20260506030118 72 298 3.5 7.0 0.00 0.00 0.00 40 1009.6
20260506030016 72 303 4.3 7.0 0.00 0.00 0.00 39 1009.6
20260506025909 72 331 4.3 7.0 0.00 0.00 0.00 39 1009.6
20260506025815 72 347 4.3 7.0 0.00 0.00 0.00 39 1009.5
20260506025712 72 322 4.3 7.0 0.00 0.00 0.00 39 1009.5
20260506025619 72 327 4.3 7.8 0.00 0.00 0.00 38 1009.5
20260506025514 73 326 4.3 8.7 0.00 0.00 0.00 38 1009.5
20260506025424 73 340 4.3 8.7 0.00 0.00 0.00 38 1009.5
20260506025308 73 332 4.3 8.7 0.00 0.00 0.00 38 1009.5
20260506025221 73 315 3.5 8.7 0.00 0.00 0.00 38 1009.5
20260506025116 73 313 3.5 8.7 0.00 0.00 0.00 38 1009.5
20260506025010 73 340 4.3 8.7 0.00 0.00 0.00 38 1009.5
20260506024923 73 339 5.2 8.7 0.00 0.00 0.00 38 1009.5
20260506024813 73 312 5.2 8.7 0.00 0.00 0.00 37 1009.4
20260506024709 73 324 6.1 8.7 0.00 0.00 0.00 37 1009.4
20260506024642 73 325 6.1 7.8 0.00 0.00 0.00 37 1009.3
20260506024515 74 354 6.1 7.8 0.00 0.00 0.00 37 1009.3
20260506024448 74 337 6.1 7.8 0.00 0.00 0.00 37 1009.2
20260506024313 74 186 5.2 7.8 0.00 0.00 0.00 37 1009.2
20260506024213 74 354 5.2 7.8 0.00 0.00 0.00 37 1009.3
20260506024125 74 339 5.2 7.8 0.00 0.00 0.00 37 1009.2
20260506024019 74 344 5.2 7.8 0.00 0.00 0.00 36 1009.2
20260506023905 74 359 5.2 7.8 0.00 0.00 0.00 37 1009.1
20260506023811 74 349 5.2 7.8 0.00 0.00 0.00 36 1009.1
20260506023711 74 331 5.2 7.8 0.00 0.00 0.00 36 1009.1
20260506023622 74 340 5.2 7.8 0.00 0.00 0.00 37 1009.1
20260506023517 74 341 5.2 7.8 0.00 0.00 0.00 37 1009.0
20260506023430 74 345 4.3 7.8 0.00 0.00 0.00 37 1009.0
20260506023314 74 349 4.3 7.8 0.00 0.00 0.00 37 1009.0
20260506023208 74 345 4.3 7.8 0.00 0.00 0.00 37 1008.9
20260506023124 74 347 5.2 7.8 0.00 0.00 0.00 37 1009.0
20260506023025 74 348 5.2 7.8 0.00 0.00 0.00 36 1009.1
20260506022910 74 354 5.2 7.8 0.00 0.00 0.00 36 1008.9
20260506022816 74 328 5.2 7.8 0.00 0.00 0.00 36 1008.9
20260506022712 75 336 5.2 7.8 0.00 0.00 0.00 36 1009.0
20260506022644 75 349 4.3 7.0 0.00 0.00 0.00 37 1008.8
20260506022526 75 321 4.3 7.0 0.00 0.00 0.00 37 1008.9
20260506022414 75 310 4.3 7.8 0.00 0.00 0.00 37 1008.9
20260506022320 75 335 4.3 7.8 0.00 0.00 0.00 36 1008.8
20260506022205 75 337 5.2 7.8 0.00 0.00 0.00 36 1008.9
20260506022121 75 317 5.2 7.8 0.00 0.00 0.00 36 1008.8
20260506022043 75 331 4.3 7.8 0.00 0.00 0.00 36 1008.8
20260506021927 75 332 5.2 7.8 0.00 0.00 0.00 36 1008.8
20260506021808 75 308 5.2 9.6 0.00 0.00 0.00 36 1008.8
20260506021732 76 340 6.1 9.6 0.00 0.00 0.00 35 1008.7
20260506021622 76 311 6.1 9.6 0.00 0.00 0.00 35 1008.7
20260506021516 76 295 6.1 9.6 0.00 0.00 0.00 35 1008.7
20260506021449 76 296 6.1 9.6 0.00 0.00 0.00 35 1008.8
20260506021334 76 354 5.2 10.4 0.00 0.00 0.00 35 1008.7
20260506021233 76 337 6.1 10.4 0.00 0.00 0.00 35 1008.7
20260506021124 76 354 7.0 11.3 0.00 0.00 0.00 34 1008.7
20260506021018 76 343 7.8 11.3 0.00 0.00 0.00 34 1008.7
20260506020931 76 14 7.8 11.3 0.00 0.00 0.00 33 1008.7
20260506020836 76 331 7.0 11.3 0.00 0.00 0.00 34 1008.6
20260506020711 77 295 7.0 11.3 0.00 0.00 0.00 34 1008.6
20260506020626 77 341 7.0 11.3 0.00 0.00 0.00 34 1008.6
20260506020520 77 283 7.8 11.3 0.00 0.00 0.00 33 1008.5
20260506020433 77 312 7.8 11.3 0.00 0.00 0.00 33 1008.5
20260506020310 77 297 7.0 11.3 0.00 0.00 0.00 34 1008.5
20260506020216 77 295 7.0 11.3 0.00 0.00 0.00 34 1008.5
20260506020152 77 305 7.0 11.3 0.00 0.00 0.00 34 1008.5
20260506020009 77 308 7.0 10.4 0.00 0.00 0.00 34 1008.6
20260506015915 77 291 7.0 10.4 0.00 0.00 0.00 34 1008.5
20260506015821 78 295 6.1 10.4 0.00 0.00 0.00 34 1008.5
20260506015707 78 310 7.0 10.4 0.00 0.00 0.00 33 1008.5
20260506015630 78 314 7.0 10.4 0.00 0.00 0.00 33 1008.5
20260506015506 78 319 6.1 10.4 0.00 0.00 0.00 34 1008.5
20260506015442 78 332 6.1 8.7 0.00 0.00 0.00 33 1008.5
20260506015307 78 347 5.2 9.6 0.00 0.00 0.00 33 1008.5
20260506015212 78 332 6.1 9.6 0.00 0.00 0.00 33 1008.6
20260506015134 78 299 5.2 9.6 0.00 0.00 0.00 32 1008.5
20260506015029 78 345 5.2 9.6 0.00 0.00 0.00 32 1008.5
20260506014906 78 335 6.1 9.6 0.00 0.00 0.00 32 1008.5
20260506014815 78 359 6.1 9.6 0.00 0.00 0.00 31 1008.5
20260506014711 78 335 6.1 9.6 0.00 0.00 0.00 31 1008.3
20260506014622 78 350 7.0 9.6 0.00 0.00 0.00 30 1008.4
20260506014544 78 349 7.8 9.6 0.00 0.00 0.00 30 1008.5
20260506014408 79 354 7.8 9.6 0.00 0.00 0.00 29 1008.4
20260506014314 79 344 7.8 9.6 0.00 0.00 0.00 30 1008.5
20260506014213 79 349 6.1 8.7 0.00 0.00 0.00 31 1008.5
20260506014125 79 354 5.2 8.7 0.00 0.00 0.00 30 1008.3
20260506014020 79 332 5.2 7.8 0.00 0.00 0.00 31 1008.3
20260506013905 79 332 5.2 7.8 0.00 0.00 0.00 30 1008.3
20260506013839 79 347 5.2 7.8 0.00 0.00 0.00 30 1008.3
20260506013734 79 354 5.2 7.8 0.00 0.00 0.00 31 1008.3
20260506013629 79 323 4.3 7.0 0.00 0.00 0.00 31 1008.4
20260506013523 79 328 4.3 7.0 0.00 0.00 0.00 31 1008.3
20260506013434 79 309 4.3 7.0 0.00 0.00 0.00 31 1008.3
20260506013319 79 336 3.5 7.0 0.00 0.00 0.00 33 1008.3
20260506013215 79 339 4.3 7.8 0.00 0.00 0.00 32 1008.3
20260506013118 79 293 4.3 7.8 0.00 0.00 0.00 31 1008.3
20260506013043 79 321 4.3 7.8 0.00 0.00 0.00 30 1008.3
20260506012908 79 336 4.3 7.8 0.00 0.00 0.00 31 1008.3
20260506012811 79 345 4.3 7.8 0.00 0.00 0.00 30 1008.3
20260506012707 79 354 5.2 7.8 0.00 0.00 0.00 30 1008.3
20260506012617 79 345 5.2 7.8 0.00 0.00 0.00 29 1008.4
20260506012533 79 335 5.2 7.8 0.00 0.00 0.00 30 1008.3
20260506012413 79 4 4.3 7.8 0.00 0.00 0.00 29 1008.3
20260506012325 79 354 3.5 7.8 0.00 0.00 0.00 29 1008.3
20260506012231 80 354 3.5 7.8 0.00 0.00 0.00 30 1008.3
20260506012133 80 341 3.5 7.8 0.00 0.00 0.00 30 1008.3
20260506012008 80 359 3.5 7.8 0.00 0.00 0.00 29 1008.3
20260506011913 80 72 3.5 7.8 0.00 0.00 0.00 29 1008.4
20260506011823 80 13 3.5 8.7 0.00 0.00 0.00 31 1008.3
20260506011709 80 359 4.3 8.7 0.00 0.00 0.00 30 1008.3
20260506011653 80 349 4.3 8.7 0.00 0.00 0.00 29 1008.3
20260506011506 80 359 5.2 8.7 0.00 0.00 0.00 30 1008.3
20260506011412 80 359 5.2 8.7 0.00 0.00 0.00 30 1008.3
20260506011325 80 331 4.3 8.7 0.00 0.00 0.00 29 1008.2
20260506011205 80 4 3.5 8.7 0.00 0.00 0.00 29 1008.2
20260506011130 80 8 4.3 8.7 0.00 0.00 0.00 29 1008.2
20260506011031 80 4 5.2 8.7 0.00 0.00 0.00 28 1008.2
20260506010937 80 345 5.2 7.8 0.00 0.00 0.00 29 1008.3
20260506010907 80 345 5.2 7.8 0.00 0.00 0.00 29 1008.3
20260506010813 80 347 5.2 7.8 0.00 0.00 0.00 29 1008.2
20260506010726 80 350 3.5 7.0 0.00 0.00 0.00 29 1008.2
20260506010625 80 349 3.5 7.0 0.00 0.00 0.00 28 1008.2
20260506010526 80 8 2.6 7.0 0.00 0.00 0.00 29 1008.2
20260506010411 80 4 2.6 7.0 0.00 0.00 0.00 28 1008.2
20260506010344 80 345 2.6 7.0 0.00 0.00 0.00 28 1008.2
20260506010208 80 12 3.5 7.0 0.00 0.00 0.00 28 1008.2
20260506010124 81 349 3.5 7.0 0.00 0.00 0.00 29 1008.2
20260506010029 81 4 4.3 7.0 0.00 0.00 0.00 29 1008.1
20260506005915 81 341 4.3 7.0 0.00 0.00 0.00 28 1008.1
20260506005822 81 344 4.3 7.0 0.00 0.00 0.00 30 1008.2
20260506005708 81 332 3.5 7.0 0.00 0.00 0.00 28 1008.2
20260506005620 81 343 3.5 11.3 0.00 0.00 0.00 30 1008.2
20260506005516 81 359 1.7 11.3 0.00 0.00 0.00 28 1008.2
20260506005432 80 4 1.7 11.3 0.00 0.00 0.00 30 1008.1
20260506005337 80 4 2.6 11.3 0.00 0.00 0.00 30 1008.2
20260506005232 80 347 3.5 11.3 0.00 0.00 0.00 29 1008.1
20260506005123 80 345 4.3 11.3 0.00 0.00 0.00 29 1008.1
20260506005036 80 343 4.3 11.3 0.00 0.00 0.00 29 1008.2
20260506004920 80 340 4.3 11.3 0.00 0.00 0.00 29 1008.2
20260506004810 80 9 3.5 11.3 0.00 0.00 0.00 29 1008.1
20260506004734 80 291 4.3 11.3 0.00 0.00 0.00 29 1008.2
20260506004638 80 316 4.3 8.7 0.00 0.00 0.00 29 1008.2
20260506004540 80 316 3.5 8.7 0.00 0.00 0.00 28 1008.2
20260506004424 80 330 2.6 5.2 0.00 0.00 0.00 27 1008.2
20260506004337 80 354 2.6 5.2 0.00 0.00 0.00 27 1008.2
20260506004212 80 332 2.6 5.2 0.00 0.00 0.00 27 1008.2
20260506004128 80 354 2.6 5.2 0.00 0.00 0.00 28 1008.2
20260506004022 80 354 1.7 4.3 0.00 0.00 0.00 27 1008.3
20260506003928 80 354 1.7 5.2 0.00 0.00 0.00 27 1008.3
20260506003820 80 359 1.7 5.2 0.00 0.00 0.00 27 1008.2
20260506003716 80 12 1.7 5.2 0.00 0.00 0.00 27 1008.3
20260506003621 80 354 2.6 5.2 0.00 0.00 0.00 28 1008.3
20260506003524 80 310 2.6 5.2 0.00 0.00 0.00 27 1008.3
20260506003410 80 344 2.6 5.2 0.00 0.00 0.00 28 1008.4
20260506003315 81 354 2.6 5.2 0.00 0.00 0.00 28 1008.3
20260506003211 81 339 3.5 7.8 0.00 0.00 0.00 28 1008.3
20260506003122 81 330 3.5 7.8 0.00 0.00 0.00 27 1008.3
20260506003016 81 328 3.5 7.8 0.00 0.00 0.00 28 1008.3
20260506002906 81 349 3.5 7.8 0.00 0.00 0.00 28 1008.4
20260506002818 81 320 3.5 7.8 0.00 0.00 0.00 27 1008.3
20260506002714 81 354 2.6 7.8 0.00 0.00 0.00 26 1008.3
20260506002618 81 359 3.5 7.8 0.00 0.00 0.00 25 1008.4
20260506002520 81 359 4.3 7.8 0.00 0.00 0.00 25 1008.3
20260506002409 81 10 5.2 7.8 0.00 0.00 0.00 25 1008.3
20260506002315 81 8 5.2 7.8 0.00 0.00 0.00 25 1008.4
20260506002211 81 15 3.5 7.8 0.00 0.00 0.00 27 1008.3
20260506002122 81 14 2.6 5.2 0.00 0.00 0.00 27 1008.3
20260506002015 81 338 2.6 5.2 0.00 0.00 0.00 27 1008.3
20260506001905 81 359 3.5 5.2 0.00 0.00 0.00 27 1008.4
20260506001811 81 343 3.5 7.0 0.00 0.00 0.00 27 1008.3
20260506001714 81 16 3.5 7.0 0.00 0.00 0.00 26 1008.3
20260506001619 81 354 2.6 7.0 0.00 0.00 0.00 26 1008.3
20260506001540 81 4 3.5 7.8 0.00 0.00 0.00 28 1008.3
20260506001405 81 328 2.6 7.8 0.00 0.00 0.00 26 1008.4
20260506001315 81 336 2.6 7.8 0.00 0.00 0.00 26 1008.4
20260506001211 81 332 3.5 7.8 0.00 0.00 0.00 26 1008.4
20260506001123 81 350 3.5 7.8 0.00 0.00 0.00 26 1008.4
20260506001017 81 4 3.5 7.8 0.00 0.00 0.00 26 1008.4
20260506000929 81 354 3.5 7.8 0.00 0.00 0.00 25 1008.4
20260506000836 81 14 3.5 7.8 0.00 0.00 0.00 27 1008.4
20260506000713 81 349 4.3 7.8 0.00 0.00 0.00 26 1008.4
20260506000625 81 359 5.2 7.8 0.00 0.00 0.00 28 1008.4
20260506000520 81 359 4.3 7.0 0.00 0.00 0.00 27 1008.3
20260506000433 81 354 3.5 7.8 0.00 0.00 0.00 28 1008.3
20260506000317 81 320 2.6 7.8 0.00 0.00 0.00 26 1008.4
20260506000213 81 354 1.7 7.8 0.00 0.00 0.00 25 1008.4
20260506000129 80 22 2.6 7.8 0.00 0.00 0.00 26 1008.3
20260506000044 80 24 3.5 7.8 0.00 0.00 0.00 26 1008.4
20260505235908 80 20 4.3 10.4 0.00 0.00 0.00 29 1008.4
20260505235821 80 343 4.3 10.4 0.00 0.00 0.00 29 1008.4
20260505235707 80 328 4.3 12.2 0.00 0.00 0.00 29 1008.3
20260505235623 80 333 4.3 12.2 0.00 0.00 0.00 28 1008.4
20260505235529 80 332 4.3 12.2 0.00 0.00 0.00 28 1008.3
20260505235414 80 314 5.2 12.2 0.00 0.00 0.00 29 1008.4
20260505235319 80 278 5.2 12.2 0.00 0.00 0.00 28 1008.3
20260505235215 80 322 5.2 12.2 0.00 0.00 0.00 29 1008.3
20260505235126 80 289 7.0 12.2 0.00 0.00 0.00 27 1008.4
20260505235048 80 276 7.0 12.2 0.00 0.00 0.00 27 1008.3
20260505234917 80 278 4.3 8.7 0.00 0.00 0.00 28 1008.3
20260505234814 80 343 4.3 7.8 0.00 0.00 0.00 29 1008.3
20260505234710 80 281 4.3 7.8 0.00 0.00 0.00 27 1008.3
20260505234621 80 328 3.5 7.8 0.00 0.00 0.00 27 1008.3
20260505234515 80 314 4.3 7.8 0.00 0.00 0.00 26 1008.4
20260505234405 80 325 4.3 7.8 0.00 0.00 0.00 28 1008.5
20260505234311 80 335 4.3 7.8 0.00 0.00 0.00 27 1008.3
20260505234235 81 326 4.3 7.8 0.00 0.00 0.00 25 1008.4
20260505234124 81 333 4.3 7.8 0.00 0.00 0.00 25 1008.3
20260505234039 81 18 3.5 7.0 0.00 0.00 0.00 26 1008.3
20260505233931 81 354 2.6 7.0 0.00 0.00 0.00 25 1008.4
20260505233811 81 18 2.6 7.0 0.00 0.00 0.00 26 1008.4
20260505233706 81 12 3.5 7.0 0.00 0.00 0.00 27 1008.4
20260505233638 81 349 4.3 7.0 0.00 0.00 0.00 27 1008.4
20260505233511 81 359 4.3 7.0 0.00 0.00 0.00 26 1008.5
20260505233416 81 345 3.5 7.0 0.00 0.00 0.00 26 1008.3
20260505233322 81 10 2.6 7.0 0.00 0.00 0.00 26 1008.5
20260505233240 81 27 2.6 7.0 0.00 0.00 0.00 26 1008.4
20260505233147 81 20 3.5 7.0 0.00 0.00 0.00 26 1008.6
20260505233028 81 359 3.5 9.6 0.00 0.00 0.00 27 1008.5
20260505232934 81 354 4.3 10.4 0.00 0.00 0.00 29 1008.5
20260505232819 81 349 3.5 10.4 0.00 0.00 0.00 27 1008.5
20260505232713 81 330 3.5 10.4 0.00 0.00 0.00 26 1008.5
20260505232624 81 321 4.3 10.4 0.00 0.00 0.00 26 1008.6
20260505232530 81 330 4.3 10.4 0.00 0.00 0.00 26 1008.5
20260505232414 81 318 5.2 10.4 0.00 0.00 0.00 27 1008.5
20260505232320 81 294 6.1 10.4 0.00 0.00 0.00 27 1008.5
20260505232207 81 301 6.1 10.4 0.00 0.00 0.00 28 1008.5
20260505232118 81 327 6.1 10.4 0.00 0.00 0.00 27 1008.5
20260505232012 81 287 5.2 10.4 0.00 0.00 0.00 29 1008.5
20260505231929 81 327 4.3 9.6 0.00 0.00 0.00 28 1008.5
20260505231815 81 305 3.5 9.6 0.00 0.00 0.00 27 1008.5
20260505231741 81 333 3.5 9.6 0.00 0.00 0.00 26 1008.5
20260505231633 81 312 4.3 9.6 0.00 0.00 0.00 27 1008.5
20260505231507 81 310 4.3 9.6 0.00 0.00 0.00 25 1008.5
20260505231413 81 293 1.7 7.0 0.00 0.00 0.00 27 1008.5
20260505231331 81 354 2.6 7.0 0.00 0.00 0.00 27 1008.5
20260505231205 81 68 4.3 8.7 0.00 0.00 0.00 30 1008.6
20260505231117 81 333 4.3 8.7 0.00 0.00 0.00 29 1008.5
20260505231011 81 302 3.5 8.7 0.00 0.00 0.00 27 1008.5
20260505230924 81 331 3.5 8.7 0.00 0.00 0.00 27 1008.6
20260505230810 81 330 5.2 8.7 0.00 0.00 0.00 27 1008.6
20260505230731 81 345 5.2 8.7 0.00 0.00 0.00 28 1008.6
20260505230621 81 343 5.2 8.7 0.00 0.00 0.00 28 1008.6
20260505230516 81 345 4.3 8.7 0.00 0.00 0.00 28 1008.6
20260505230422 81 337 4.3 8.7 0.00 0.00 0.00 30 1008.6
20260505230308 81 335 3.5 7.8 0.00 0.00 0.00 29 1008.6
20260505230211 81 328 3.5 7.8 0.00 0.00 0.00 27 1008.6
20260505230116 81 312 3.5 7.8 0.00 0.00 0.00 29 1008.6
20260505230038 81 325 3.5 7.8 0.00 0.00 0.00 27 1008.6
20260505225923 81 9 3.5 8.7 0.00 0.00 0.00 29 1008.6
20260505225809 81 335 3.5 8.7 0.00 0.00 0.00 26 1008.6
20260505225705 81 343 3.5 8.7 0.00 0.00 0.00 26 1008.6
20260505225617 81 4 3.5 8.7 0.00 0.00 0.00 27 1008.6
20260505225516 81 341 4.3 8.7 0.00 0.00 0.00 28 1008.7
20260505225428 81 330 3.5 8.7 0.00 0.00 0.00 27 1008.7
20260505225314 81 14 3.5 8.7 0.00 0.00 0.00 28 1008.6
20260505225210 81 4 4.3 8.7 0.00 0.00 0.00 28 1008.7
20260505225142 81 10 4.3 8.7 0.00 0.00 0.00 27 1008.7
20260505225020 81 336 4.3 7.0 0.00 0.00 0.00 28 1008.6
20260505224926 81 339 3.5 7.8 0.00 0.00 0.00 27 1008.6
20260505224839 81 23 3.5 7.8 0.00 0.00 0.00 27 1008.6
20260505224715 81 326 2.6 7.8 0.00 0.00 0.00 26 1008.7
20260505224639 81 4 2.6 7.8 0.00 0.00 0.00 27 1008.7
20260505224513 81 28 1.7 7.8 0.00 0.00 0.00 28 1008.7
20260505224439 81 345 1.7 7.8 0.00 0.00 0.00 30 1008.6
20260505224336 81 322 2.6 7.8 0.00 0.00 0.00 32 1008.8
20260505224211 81 289 2.6 7.8 0.00 0.00 0.00 29 1008.8
20260505224142 81 293 2.6 7.8 0.00 0.00 0.00 29 1008.8
20260505224037 81 335 2.6 4.3 0.00 0.00 0.00 30 1009.0
20260505223922 80 345 2.6 4.3 0.00 0.00 0.00 28 1008.9
20260505223834 80 20 1.7 4.3 0.00 0.00 0.00 28 1008.9
20260505223713 80 359 1.7 4.3 0.00 0.00 0.00 30 1009.1
20260505223645 80 338 1.7 7.8 0.00 0.00 0.00 30 1009.1
20260505223517 80 359 1.7 10.4 0.00 0.00 0.00 28 1009.1
20260505223422 80 350 1.7 10.4 0.00 0.00 0.00 28 1009.1
20260505223328 80 16 1.7 10.4 0.00 0.00 0.00 29 1009.1
20260505223215 80 345 0.9 10.4 0.00 0.00 0.00 30 1009.2
20260505223131 80 345 1.7 10.4 0.00 0.00 0.00 29 1009.2
20260505223006 80 354 2.6 10.4 0.00 0.00 0.00 29 1009.1
20260505222939 80 320 3.5 10.4 0.00 0.00 0.00 29 1009.2
20260505222824 80 310 6.1 10.4 0.00 0.00 0.00 28 1009.2
20260505222709 80 322 5.2 10.4 0.00 0.00 0.00 33 1009.2
20260505222632 80 291 3.5 10.4 0.00 0.00 0.00 33 1009.1
20260505222511 80 319 2.6 7.8 0.00 0.00 0.00 28 1009.1
20260505222416 80 340 1.7 7.8 0.00 0.00 0.00 29 1009.1
20260505222322 80 314 1.7 7.8 0.00 0.00 0.00 30 1009.2
20260505222207 80 341 1.7 7.8 0.00 0.00 0.00 31 1009.1
20260505222130 80 344 1.7 7.8 0.00 0.00 0.00 28 1009.2
20260505222026 80 18 2.6 7.8 0.00 0.00 0.00 29 1009.2
20260505221922 80 13 3.5 7.8 0.00 0.00 0.00 30 1009.2
20260505221827 80 342 4.3 7.8 0.00 0.00 0.00 27 1009.2
20260505221714 80 301 4.3 7.8 0.00 0.00 0.00 29 1009.1
20260505221627 80 276 4.3 7.0 0.00 0.00 0.00 29 1009.2
20260505221541 80 295 3.5 7.0 0.00 0.00 0.00 30 1009.2
20260505221432 80 347 3.5 7.0 0.00 0.00 0.00 30 1009.2
20260505221341 80 359 3.5 7.8 0.00 0.00 0.00 29 1009.2
20260505221235 80 340 3.5 7.8 0.00 0.00 0.00 28 1009.3
20260505221129 80 296 3.5 7.8 0.00 0.00 0.00 28 1009.3
20260505221051 80 305 3.5 7.8 0.00 0.00 0.00 29 1009.3
20260505220916 80 359 3.5 7.8 0.00 0.00 0.00 29 1009.3
20260505220821 80 340 2.6 9.6 0.00 0.00 0.00 29 1009.2
20260505220711 80 349 3.5 9.6 0.00 0.00 0.00 28 1009.3
20260505220634 80 4 4.3 9.6 0.00 0.00 0.00 29 1009.3
20260505220546 80 347 4.3 9.6 0.00 0.00 0.00 27 1009.3
20260505220410 80 4 4.3 9.6 0.00 0.00 0.00 28 1009.2
20260505220343 80 359 4.3 9.6 0.00 0.00 0.00 27 1009.3
20260505220208 80 11 4.3 9.6 0.00 0.00 0.00 27 1009.3
20260505220152 80 39 5.2 9.6 0.00 0.00 0.00 27 1009.3
20260505220009 80 359 4.3 11.3 0.00 0.00 0.00 28 1009.3
20260505215942 80 347 3.5 11.3 0.00 0.00 0.00 29 1009.3
20260505215828 80 4 2.6 11.3 0.00 0.00 0.00 29 1009.3
20260505215740 80 52 2.6 11.3 0.00 0.00 0.00 27 1009.3
20260505215625 80 11 1.7 11.3 0.00 0.00 0.00 27 1009.3
20260505215527 80 27 2.6 11.3 0.00 0.00 0.00 27 1009.4
20260505215453 80 30 3.5 11.3 0.00 0.00 0.00 27 1009.4
20260505215313 80 37 5.2 11.3 0.00 0.00 0.00 27 1009.4
20260505215233 80 12 4.3 11.3 0.00 0.00 0.00 28 1009.3
20260505215117 80 48 3.5 8.7 0.00 0.00 0.00 28 1009.3
20260505215018 80 330 3.5 8.7 0.00 0.00 0.00 29 1009.3
20260505214924 80 339 4.3 8.7 0.00 0.00 0.00 28 1009.4
20260505214810 80 301 4.3 8.7 0.00 0.00 0.00 28 1009.5
20260505214720 80 291 4.3 8.7 0.00 0.00 0.00 29 1009.5
20260505214633 80 324 4.3 8.7 0.00 0.00 0.00 28 1009.5
20260505214507 80 295 4.3 8.7 0.00 0.00 0.00 27 1009.5
20260505214413 80 12 4.3 7.8 0.00 0.00 0.00 28 1009.5
20260505214346 80 359 3.5 7.8 0.00 0.00 0.00 29 1009.6
20260505214210 80 344 2.6 5.2 0.00 0.00 0.00 28 1009.5
20260505214116 80 354 2.6 5.2 0.00 0.00 0.00 27 1009.4
20260505214031 80 343 2.6 8.7 0.00 0.00 0.00 26 1009.5
20260505213943 80 10 2.6 8.7 0.00 0.00 0.00 27 1009.5
20260505213818 80 8 3.5 8.7 0.00 0.00 0.00 27 1009.6
20260505213713 80 8 2.6 8.7 0.00 0.00 0.00 27 1009.7
20260505213625 80 349 2.6 8.7 0.00 0.00 0.00 28 1009.6
20260505213519 80 10 3.5 8.7 0.00 0.00 0.00 28 1009.6
20260505213408 80 359 4.3 8.7 0.00 0.00 0.00 28 1009.6
20260505213320 80 337 4.3 8.7 0.00 0.00 0.00 28 1009.6
20260505213237 80 346 4.3 8.7 0.00 0.00 0.00 28 1009.6
20260505213124 80 62 4.3 7.8 0.00 0.00 0.00 27 1009.6
20260505213046 80 8 4.3 7.8 0.00 0.00 0.00 27 1009.7
20260505212930 80 354 4.3 7.8 0.00 0.00 0.00 26 1009.7
20260505212820 80 354 4.3 7.8 0.00 0.00 0.00 27 1009.7
20260505212705 80 346 4.3 7.8 0.00 0.00 0.00 28 1009.7
20260505212650 80 339 4.3 7.8 0.00 0.00 0.00 28 1009.8
20260505212524 80 343 5.2 7.8 0.00 0.00 0.00 27 1009.7
20260505212429 79 337 5.2 7.8 0.00 0.00 0.00 27 1009.7
20260505212321 79 339 5.2 7.8 0.00 0.00 0.00 28 1009.8
20260505212211 79 328 5.2 7.8 0.00 0.00 0.00 28 1009.8
20260505212126 79 354 4.3 7.8 0.00 0.00 0.00 29 1009.7
20260505212028 79 312 2.6 7.0 0.00 0.00 0.00 28 1009.8
20260505211905 79 335 1.7 7.8 0.00 0.00 0.00 26 1009.8
20260505211831 79 359 2.6 7.8 0.00 0.00 0.00 27 1009.8
20260505211707 79 354 2.6 7.8 0.00 0.00 0.00 28 1009.9
20260505211634 79 50 2.6 7.8 0.00 0.00 0.00 27 1009.8
20260505211528 79 315 2.6 8.7 0.00 0.00 0.00 27 1009.8
20260505211432 79 328 2.6 8.7 0.00 0.00 0.00 27 1009.9
20260505211317 79 354 2.6 8.7 0.00 0.00 0.00 27 1009.9
20260505211212 79 347 3.5 8.7 0.00 0.00 0.00 27 1010.0
20260505211145 79 346 4.3 8.7 0.00 0.00 0.00 26 1010.0
20260505211014 79 354 3.5 8.7 0.00 0.00 0.00 27 1009.9
20260505210919 79 354 3.5 8.7 0.00 0.00 0.00 27 1009.9
20260505210832 79 4 3.5 8.7 0.00 0.00 0.00 28 1009.9
20260505210707 79 359 2.6 7.0 0.00 0.00 0.00 28 1009.9
20260505210619 79 50 2.6 7.0 0.00 0.00 0.00 27 1009.9
20260505210513 79 57 3.5 7.8 0.00 0.00 0.00 27 1009.9
20260505210423 79 276 4.3 7.8 0.00 0.00 0.00 28 1010.0
20260505210309 79 347 3.5 7.8 0.00 0.00 0.00 28 1010.0
20260505210232 78 4 3.5 7.8 0.00 0.00 0.00 28 1010.0
20260505210143 78 354 2.6 7.8 0.00 0.00 0.00 28 1010.0
20260505210037 78 343 2.6 7.8 0.00 0.00 0.00 28 1010.0
20260505205922 78 4 2.6 7.8 0.00 0.00 0.00 29 1010.1
20260505205812 78 4 2.6 7.8 0.00 0.00 0.00 28 1010.1
20260505205708 78 354 2.6 8.7 0.00 0.00 0.00 28 1010.1
20260505205618 78 17 2.6 8.7 0.00 0.00 0.00 29 1010.1
20260505205541 78 359 2.6 8.7 0.00 0.00 0.00 28 1010.1
20260505205424 78 4 3.5 8.7 0.00 0.00 0.00 31 1010.1
20260505205310 78 28 2.6 8.7 0.00 0.00 0.00 32 1010.0
20260505205210 78 335 1.7 8.7 0.00 0.00 0.00 30 1010.1
20260505205143 78 332 2.6 8.7 0.00 0.00 0.00 30 1010.1
20260505205044 78 46 5.2 8.7 0.00 0.00 0.00 31 1010.0
20260505204928 78 29 6.1 8.7 0.00 0.00 0.00 31 1010.1
20260505204840 78 50 5.2 8.7 0.00 0.00 0.00 34 1010.0
20260505204736 78 47 2.6 7.8 0.00 0.00 0.00 33 1010.1
20260505204626 77 45 2.6 7.8 0.00 0.00 0.00 31 1010.0
20260505204518 77 246 2.6 7.8 0.00 0.00 0.00 30 1010.1
20260505204455 77 345 4.3 7.8 0.00 0.00 0.00 31 1010.1
20260505204310 78 58 3.5 7.8 0.00 0.00 0.00 30 1010.1
20260505204227 78 44 1.7 7.8 0.00 0.00 0.00 32 1010.1
20260505204117 78 23 1.7 7.8 0.00 0.00 0.00 33 1010.1
20260505204018 78 24 4.3 7.8 0.00 0.00 0.00 34 1010.1
20260505203914 78 33 5.2 7.8 0.00 0.00 0.00 34 1010.1
20260505203820 78 45 3.5 7.0 0.00 0.00 0.00 32 1010.1
20260505203710 78 24 2.6 5.2 0.00 0.00 0.00 33 1010.1
20260505203633 78 33 1.7 7.0 0.00 0.00 0.00 34 1010.1
20260505203527 78 69 1.7 7.0 0.00 0.00 0.00 33 1010.1
20260505203419 78 46 1.7 7.0 0.00 0.00 0.00 32 1010.2
20260505203305 78 359 1.7 7.0 0.00 0.00 0.00 33 1010.2
20260505203204 78 59 1.7 7.0 0.00 0.00 0.00 33 1010.2
20260505203138 78 12 2.6 7.0 0.00 0.00 0.00 31 1010.1
20260505203011 78 41 3.5 7.0 0.00 0.00 0.00 31 1010.2
20260505202917 78 18 3.5 7.0 0.00 0.00 0.00 31 1010.1
20260505202830 78 359 2.6 7.0 0.00 0.00 0.00 33 1010.2
20260505202716 77 342 3.5 7.0 0.00 0.00 0.00 34 1010.1
20260505202635 77 349 3.5 7.0 0.00 0.00 0.00 32 1010.1
20260505202529 77 201 1.7 7.0 0.00 0.00 0.00 33 1010.1
20260505202413 77 266 0.9 5.2 0.00 0.00 0.00 36 1010.1
20260505202319 77 29 1.7 5.2 0.00 0.00 0.00 36 1010.1
20260505202215 77 58 2.6 5.2 0.00 0.00 0.00 34 1010.1
20260505202117 77 34 2.6 5.2 0.00 0.00 0.00 32 1010.1
20260505202015 77 45 2.6 5.2 0.00 0.00 0.00 32 1010.2
20260505201921 77 42 1.7 4.3 0.00 0.00 0.00 30 1010.2
20260505201807 77 27 2.6 4.3 0.00 0.00 0.00 32 1010.2
20260505201710 77 324 1.7 4.3 0.00 0.00 0.00 31 1010.2
20260505201635 77 340 1.7 5.2 0.00 0.00 0.00 31 1010.2
20260505201513 77 335 1.7 5.2 0.00 0.00 0.00 32 1010.2
20260505201425 77 336 1.7 5.2 0.00 0.00 0.00 33 1010.2
20260505201310 77 216 1.7 5.2 0.00 0.00 0.00 30 1010.2
20260505201217 77 224 1.7 5.2 0.00 0.00 0.00 30 1010.2
20260505201130 77 333 1.7 5.2 0.00 0.00 0.00 32 1010.3
20260505201024 77 336 1.7 5.2 0.00 0.00 0.00 31 1010.3
20260505200914 77 341 1.7 5.2 0.00 0.00 0.00 30 1010.3
20260505200820 77 45 2.6 5.2 0.00 0.00 0.00 32 1010.3
20260505200705 77 4 1.7 4.3 0.00 0.00 0.00 33 1010.3
20260505200629 77 43 0.9 4.3 0.00 0.00 0.00 36 1010.3
20260505200514 77 283 1.7 4.3 0.00 0.00 0.00 33 1010.4
20260505200427 77 336 2.6 4.3 0.00 0.00 0.00 33 1010.3
20260505200317 77 354 2.6 4.3 0.00 0.00 0.00 34 1010.3
20260505200233 77 339 1.7 4.3 0.00 0.00 0.00 31 1010.3
20260505200126 77 18 0.9 4.3 0.00 0.00 0.00 31 1010.3
20260505200011 77 45 0.9 4.3 0.00 0.00 0.00 29 1010.3
20260505195944 77 40 0.9 4.3 0.00 0.00 0.00 32 1010.3
20260505195829 77 330 2.6 4.3 0.00 0.00 0.00 30 1010.3
20260505195726 77 4 2.6 4.3 0.00 0.00 0.00 32 1010.3
20260505195632 77 14 2.6 4.3 0.00 0.00 0.00 32 1010.3
20260505195507 77 345 2.6 4.3 0.00 0.00 0.00 31 1010.3
20260505195412 77 28 2.6 4.3 0.00 0.00 0.00 32 1010.3
20260505195325 77 326 1.7 7.8 0.00 0.00 0.00 35 1010.3
20260505195230 77 312 0.9 8.7 0.00 0.00 0.00 35 1010.3
20260505195150 76 312 0.9 8.7 0.00 0.00 0.00 34 1010.3
20260505195008 76 244 1.7 8.7 0.00 0.00 0.00 36 1010.3
20260505194913 76 285 1.7 8.7 0.00 0.00 0.00 36 1010.3
20260505194826 76 306 1.7 8.7 0.00 0.00 0.00 37 1010.3
20260505194712 76 344 2.6 8.7 0.00 0.00 0.00 35 1010.2
20260505194627 76 14 2.6 8.7 0.00 0.00 0.00 34 1010.2
20260505194505 76 4 3.5 8.7 0.00 0.00 0.00 36 1010.3
20260505194418 77 35 3.5 8.7 0.00 0.00 0.00 33 1010.2
20260505194316 77 60 3.5 7.8 0.00 0.00 0.00 38 1010.3
20260505194212 77 58 1.7 7.0 0.00 0.00 0.00 36 1010.3
20260505194145 76 73 0.9 4.3 0.00 0.00 0.00 36 1010.3
20260505194018 76 38 0.9 4.3 0.00 0.00 0.00 34 1010.2
20260505193935 76 18 1.7 4.3 0.00 0.00 0.00 34 1010.3
20260505193812 76 18 2.6 4.3 0.00 0.00 0.00 36 1010.3
20260505193708 76 359 2.6 3.5 0.00 0.00 0.00 39 1010.2
20260505193640 76 65 1.7 3.5 0.00 0.00 0.00 42 1010.2
20260505193511 76 4 1.7 4.3 0.00 0.00 0.00 37 1010.2
20260505193417 76 179 1.7 4.3 0.00 0.00 0.00 42 1010.2
20260505193345 76 181 1.7 4.3 0.00 0.00 0.00 41 1010.3
20260505193209 76 137 1.7 7.8 0.00 0.00 0.00 40 1010.3
20260505193126 76 129 1.7 7.8 0.00 0.00 0.00 37 1010.3
20260505193027 76 94 1.7 7.8 0.00 0.00 0.00 37 1010.3
20260505192912 76 50 1.7 7.8 0.00 0.00 0.00 35 1010.3
20260505192846 76 40 2.6 7.8 0.00 0.00 0.00 38 1010.3
20260505192714 76 44 1.7 7.8 0.00 0.00 0.00 35 1010.3
20260505192648 76 39 0.9 7.8 0.00 0.00 0.00 37 1010.3
20260505192530 76 190 0.9 7.8 0.00 0.00 0.00 36 1010.3
20260505192435 76 341 2.6 7.8 0.00 0.00 0.00 36 1010.3
20260505192320 76 336 1.7 7.8 0.00 0.00 0.00 37 1010.3
20260505192205 76 326 1.7 5.2 0.00 0.00 0.00 35 1010.3
20260505192127 76 339 2.6 5.2 0.00 0.00 0.00 36 1010.4
20260505192005 76 282 2.6 6.1 0.00 0.00 0.00 36 1010.3
20260505191911 76 359 2.6 5.2 0.00 0.00 0.00 36 1010.3
20260505191824 76 299 2.6 5.2 0.00 0.00 0.00 36 1010.3
20260505191709 76 343 3.5 5.2 0.00 0.00 0.00 37 1010.3
20260505191625 76 317 2.6 5.2 0.00 0.00 0.00 37 1010.4
20260505191530 76 314 2.6 5.2 0.00 0.00 0.00 34 1010.3
20260505191415 76 324 3.5 5.2 0.00 0.00 0.00 37 1010.3
20260505191341 76 297 2.6 5.2 0.00 0.00 0.00 38 1010.4
20260505191206 76 316 1.7 4.3 0.00 0.00 0.00 38 1010.4
20260505191150 76 285 0.9 4.3 0.00 0.00 0.00 38 1010.3
20260505191024 76 239 0.9 4.3 0.00 0.00 0.00 35 1010.4
20260505190912 76 31 0.9 4.3 0.00 0.00 0.00 34 1010.4
20260505190826 76 43 0.9 7.0 0.00 0.00 0.00 38 1010.5
20260505190711 76 173 0.0 7.0 0.00 0.00 0.00 39 1010.5
20260505190634 76 172 0.9 7.0 0.00 0.00 0.00 39 1010.4
20260505190520 76 173 2.6 7.0 0.00 0.00 0.00 34 1010.4
20260505190452 76 179 2.6 7.0 0.00 0.00 0.00 34 1010.6
20260505190337 76 339 2.6 7.0 0.00 0.00 0.00 36 1010.6
20260505190227 76 324 2.6 7.0 0.00 0.00 0.00 36 1010.6
20260505190128 76 318 3.5 7.0 0.00 0.00 0.00 35 1010.6
20260505190018 76 343 3.5 7.0 0.00 0.00 0.00 35 1010.6
20260505185922 76 321 2.6 7.0 0.00 0.00 0.00 36 1010.5
20260505185808 76 301 1.7 7.0 0.00 0.00 0.00 36 1010.5
20260505185713 76 339 1.7 7.0 0.00 0.00 0.00 35 1010.5
20260505185640 76 322 1.7 7.0 0.00 0.00 0.00 35 1010.5
20260505185515 76 330 2.6 7.0 0.00 0.00 0.00 33 1010.5
20260505185420 76 305 2.6 7.8 0.00 0.00 0.00 36 1010.5
20260505185306 76 279 2.6 7.8 0.00 0.00 0.00 35 1010.6
20260505185239 76 299 2.6 7.8 0.00 0.00 0.00 34 1010.6
20260505185133 76 316 2.6 7.8 0.00 0.00 0.00 35 1010.6
20260505185040 76 308 2.6 7.8 0.00 0.00 0.00 34 1010.6
20260505184924 76 313 3.5 7.8 0.00 0.00 0.00 36 1010.6
20260505184810 76 305 3.5 7.8 0.00 0.00 0.00 34 1010.5
20260505184727 76 314 4.3 7.8 0.00 0.00 0.00 34 1010.6
20260505184617 76 322 4.3 7.8 0.00 0.00 0.00 34 1010.6
20260505184511 76 312 3.5 7.8 0.00 0.00 0.00 34 1010.5
20260505184428 76 288 2.6 7.8 0.00 0.00 0.00 38 1010.5
20260505184314 76 317 0.9 7.8 0.00 0.00 0.00 38 1010.6
20260505184210 76 267 1.7 7.8 0.00 0.00 0.00 40 1010.5
20260505184122 75 321 2.6 7.8 0.00 0.00 0.00 39 1010.5
20260505184012 75 287 3.5 7.8 0.00 0.00 0.00 36 1010.6
20260505183945 75 324 3.5 7.8 0.00 0.00 0.00 38 1010.5
20260505183814 75 302 1.7 7.0 0.00 0.00 0.00 38 1010.5
20260505183709 75 179 1.7 6.1 0.00 0.00 0.00 38 1010.5
20260505183641 75 263 0.9 3.5 0.00 0.00 0.00 38 1010.5
20260505183516 75 297 0.9 3.5 0.00 0.00 0.00 39 1010.6
20260505183422 75 82 1.7 3.5 0.00 0.00 0.00 44 1010.4
20260505183311 75 87 1.7 3.5 0.00 0.00 0.00 39 1010.5
20260505183228 75 47 1.7 3.5 0.00 0.00 0.00 37 1010.4
20260505183118 75 97 0.9 3.5 0.00 0.00 0.00 41 1010.5
20260505183039 75 145 0.9 3.5 0.00 0.00 0.00 40 1010.5
20260505182945 75 249 0.9 3.5 0.00 0.00 0.00 38 1010.5
20260505182836 75 249 0.9 3.5 0.00 0.00 0.00 38 1010.6
20260505182710 75 233 0.9 3.5 0.00 0.00 0.00 42 1010.6
20260505182626 75 147 0.0 3.5 0.00 0.00 0.00 42 1010.6
20260505182541 75 122 0.9 3.5 0.00 0.00 0.00 40 1010.6
20260505182405 75 218 1.7 4.3 0.00 0.00 0.00 40 1010.6
20260505182338 75 242 1.7 4.3 0.00 0.00 0.00 39 1010.5
20260505182212 75 172 1.7 4.3 0.00 0.00 0.00 38 1010.6
20260505182124 75 151 0.9 3.5 0.00 0.00 0.00 40 1010.6
20260505182018 75 131 1.7 3.5 0.00 0.00 0.00 39 1010.7
20260505181928 75 226 1.7 3.5 0.00 0.00 0.00 42 1010.7
20260505181820 75 130 1.7 3.5 0.00 0.00 0.00 41 1010.6
20260505181736 75 183 1.7 3.5 0.00 0.00 0.00 38 1010.7
20260505181648 75 155 2.6 3.5 0.00 0.00 0.00 40 1010.7
20260505181521 75 162 1.7 3.5 0.00 0.00 0.00 39 1010.7
20260505181425 75 139 0.9 3.5 0.00 0.00 0.00 43 1010.7
20260505181314 74 255 1.7 3.5 0.00 0.00 0.00 39 1010.8
20260505181210 74 203 1.7 3.5 0.00 0.00 0.00 40 1010.7
20260505181121 74 237 0.9 3.5 0.00 0.00 0.00 38 1010.8
20260505181016 74 147 0.0 3.5 0.00 0.00 0.00 40 1010.7
20260505180921 74 295 0.0 3.5 0.00 0.00 0.00 42 1010.8
20260505180807 74 295 0.9 3.5 0.00 0.00 0.00 42 1010.8
20260505180734 74 295 0.9 3.5 0.00 0.00 0.00 41 1010.9
20260505180642 74 295 0.9 3.5 0.00 0.00 0.00 41 1010.9
20260505180516 74 290 0.9 5.2 0.00 0.00 0.00 42 1010.9
20260505180422 74 322 0.9 5.2 0.00 0.00 0.00 41 1011.0
20260505180308 74 253 1.7 5.2 0.00 0.00 0.00 41 1011.0
20260505180209 74 259 0.9 5.2 0.00 0.00 0.00 40 1011.0
20260505180116 74 320 0.9 5.2 0.00 0.00 0.00 41 1010.9
20260505180011 74 322 0.9 5.2 0.00 0.00 0.00 39 1011.0
20260505175916 74 322 2.6 5.2 0.00 0.00 0.00 40 1010.8
20260505175829 74 344 3.5 5.2 0.00 0.00 0.00 40 1011.0
20260505175715 74 295 1.7 6.1 0.00 0.00 0.00 40 1011.0
20260505175634 74 312 0.9 2.6 0.00 0.00 0.00 41 1011.0
20260505175509 74 308 1.7 2.6 0.00 0.00 0.00 43 1010.8
20260505175421 73 326 0.9 2.6 0.00 0.00 0.00 45 1010.8
20260505175324 73 326 0.9 2.6 0.00 0.00 0.00 43 1010.9
20260505175209 73 333 0.9 2.6 0.00 0.00 0.00 42 1010.8
20260505175132 73 52 0.9 2.6 0.00 0.00 0.00 40 1010.8
20260505175030 73 52 0.9 2.6 0.00 0.00 0.00 42 1010.8
20260505174914 73 52 1.7 2.6 0.00 0.00 0.00 43 1010.8
20260505174827 73 52 0.9 2.6 0.00 0.00 0.00 41 1010.7
20260505174715 73 35 0.9 2.6 0.00 0.00 0.00 43 1010.8
20260505174621 73 354 1.7 2.6 0.00 0.00 0.00 40 1010.8
20260505174523 73 13 0.9 2.6 0.00 0.00 0.00 41 1010.8
20260505174412 73 43 0.9 3.5 0.00 0.00 0.00 40 1010.8
20260505174318 73 246 1.7 3.5 0.00 0.00 0.00 39 1010.8
20260505174214 73 243 1.7 3.5 0.00 0.00 0.00 40 1010.8
20260505174125 73 230 0.9 3.5 0.00 0.00 0.00 41 1010.8
20260505174020 73 174 0.9 3.5 0.00 0.00 0.00 39 1010.8
20260505173928 73 77 1.7 3.5 0.00 0.00 0.00 38 1010.8
20260505173835 73 107 1.7 3.5 0.00 0.00 0.00 40 1010.8
20260505173710 73 60 2.6 3.5 0.00 0.00 0.00 39 1010.8
20260505173621 73 42 1.7 3.5 0.00 0.00 0.00 39 1010.8
20260505173515 73 192 0.9 3.5 0.00 0.00 0.00 40 1010.8
20260505173421 73 247 0.9 3.5 0.00 0.00 0.00 39 1010.8
20260505173310 73 329 1.7 3.5 0.00 0.00 0.00 38 1010.8
20260505173214 73 326 1.7 3.5 0.00 0.00 0.00 39 1010.8
20260505173117 73 314 1.7 3.5 0.00 0.00 0.00 41 1010.8
20260505173020 73 318 1.7 3.5 0.00 0.00 0.00 42 1010.8
20260505172937 73 314 1.7 3.5 0.00 0.00 0.00 45 1010.7
20260505172819 73 37 0.9 3.5 0.00 0.00 0.00 42 1010.8
20260505172709 73 13 0.9 3.5 0.00 0.00 0.00 39 1010.8
20260505172624 73 13 0.9 3.5 0.00 0.00 0.00 40 1010.8
20260505172526 73 308 1.7 3.5 0.00 0.00 0.00 39 1010.8
20260505172431 73 312 1.7 3.5 0.00 0.00 0.00 39 1010.8
20260505172317 73 210 1.7 4.3 0.00 0.00 0.00 41 1010.8
20260505172207 73 299 1.7 4.3 0.00 0.00 0.00 42 1010.8
20260505172151 73 299 1.7 4.3 0.00 0.00 0.00 42 1010.8
20260505172042 73 306 1.7 4.3 0.00 0.00 0.00 42 1010.8
20260505171934 73 349 1.7 4.3 0.00 0.00 0.00 42 1010.8
20260505171819 73 319 1.7 4.3 0.00 0.00 0.00 40 1010.8
20260505171714 73 51 1.7 4.3 0.00 0.00 0.00 40 1010.8
20260505171647 73 339 1.7 4.3 0.00 0.00 0.00 41 1010.8
20260505171520 73 324 1.7 4.3 0.00 0.00 0.00 40 1010.8
20260505171409 73 295 2.6 4.3 0.00 0.00 0.00 40 1010.8
20260505171322 73 297 2.6 4.3 0.00 0.00 0.00 40 1010.8
20260505171208 73 301 0.9 3.5 0.00 0.00 0.00 42 1010.8
20260505171145 73 312 0.0 3.5 0.00 0.00 0.00 42 1010.8
20260505171025 73 40 0.9 3.5 0.00 0.00 0.00 38 1010.7
20260505170915 73 39 1.7 3.5 0.00 0.00 0.00 38 1010.7
20260505170828 73 33 0.9 3.5 0.00 0.00 0.00 40 1010.7
20260505170725 73 341 1.7 3.5 0.00 0.00 0.00 40 1010.7
20260505170620 73 18 1.7 3.5 0.00 0.00 0.00 41 1010.7
20260505170542 73 44 1.7 3.5 0.00 0.00 0.00 40 1010.7
20260505170407 73 32 0.9 3.5 0.00 0.00 0.00 40 1010.7
20260505170312 72 27 0.9 3.5 0.00 0.00 0.00 39 1010.6
20260505170212 72 32 0.9 3.5 0.00 0.00 0.00 38 1010.6
20260505170124 72 37 0.9 3.5 0.00 0.00 0.00 39 1010.7
20260505170016 72 312 0.9 2.6 0.00 0.00 0.00 39 1010.7
20260505165929 72 282 1.7 2.6 0.00 0.00 0.00 40 1010.6
20260505165815 72 229 0.9 3.5 0.00 0.00 0.00 39 1010.6
20260505165736 72 236 0.9 3.5 0.00 0.00 0.00 40 1010.6
20260505165626 72 237 0.9 3.5 0.00 0.00 0.00 39 1010.6
20260505165522 72 249 0.9 3.5 0.00 0.00 0.00 41 1010.6
20260505165406 72 280 0.0 3.5 0.00 0.00 0.00 41 1010.6
20260505165339 72 271 0.0 3.5 0.00 0.00 0.00 42 1010.6
20260505165205 72 271 0.9 3.5 0.00 0.00 0.00 39 1010.6
20260505165120 72 271 1.7 3.5 0.00 0.00 0.00 38 1010.6
20260505165014 72 316 1.7 3.5 0.00 0.00 0.00 40 1010.7
20260505164926 72 218 1.7 3.5 0.00 0.00 0.00 39 1010.6
20260505164830 72 224 1.7 3.5 0.00 0.00 0.00 39 1010.6
20260505164716 72 300 1.7 3.5 0.00 0.00 0.00 39 1010.6
20260505164627 72 316 1.7 3.5 0.00 0.00 0.00 39 1010.7
20260505164549 72 310 1.7 3.5 0.00 0.00 0.00 40 1010.7
20260505164417 72 329 0.9 3.5 0.00 0.00 0.00 39 1010.6
20260505164323 72 312 0.9 3.5 0.00 0.00 0.00 41 1010.6
20260505164229 72 48 0.9 2.6 0.00 0.00 0.00 43 1010.6
20260505164130 72 48 0.9 2.6 0.00 0.00 0.00 41 1010.6
20260505164024 72 50 0.9 2.6 0.00 0.00 0.00 42 1010.6
20260505163916 72 306 1.7 2.6 0.00 0.00 0.00 42 1010.7
20260505163826 71 291 0.9 2.6 0.00 0.00 0.00 41 1010.7
20260505163710 71 287 0.0 2.6 0.00 0.00 0.00 42 1010.7
20260505163634 71 40 0.0 2.6 0.00 0.00 0.00 44 1010.7
20260505163508 71 39 0.9 2.6 0.00 0.00 0.00 42 1010.7
20260505163441 71 39 0.9 3.5 0.00 0.00 0.00 42 1010.7
20260505163306 71 348 0.9 3.5 0.00 0.00 0.00 42 1010.7
20260505163215 71 321 0.9 3.5 0.00 0.00 0.00 43 1010.7
20260505163200 71 321 0.9 3.5 0.00 0.00 0.00 44 1010.7
20260505163033 71 359 1.7 3.5 0.00 0.00 0.00 41 1010.7
20260505162918 71 319 0.9 3.5 0.00 0.00 0.00 41 1010.7
20260505162831 71 298 0.9 3.5 0.00 0.00 0.00 42 1010.7
20260505162708 71 316 1.7 3.5 0.00 0.00 0.00 41 1010.7
20260505162632 71 316 1.7 3.5 0.00 0.00 0.00 43 1010.6
20260505162511 71 320 0.9 3.5 0.00 0.00 0.00 42 1010.6
20260505162423 71 320 0.9 3.5 0.00 0.00 0.00 41 1010.7
20260505162309 71 300 1.7 3.5 0.00 0.00 0.00 42 1010.6
20260505162235 71 299 0.9 3.5 0.00 0.00 0.00 43 1010.6
20260505162138 71 294 0.0 3.5 0.00 0.00 0.00 44 1010.7
20260505162011 71 303 0.9 3.5 0.00 0.00 0.00 41 1010.7
20260505161927 71 304 0.9 3.5 0.00 0.00 0.00 42 1010.7
20260505161834 71 228 0.9 2.6 0.00 0.00 0.00 42 1010.6
20260505161708 71 228 0.9 2.6 0.00 0.00 0.00 46 1010.6
20260505161640 71 295 0.9 2.6 0.00 0.00 0.00 46 1010.6
20260505161553 70 294 0.9 3.5 0.00 0.00 0.00 44 1010.6
20260505161417 70 293 0.9 3.5 0.00 0.00 0.00 44 1010.6
20260505161327 70 250 0.9 3.5 0.00 0.00 0.00 45 1010.6
20260505161214 70 320 0.0 3.5 0.00 0.00 0.00 43 1010.6
20260505161147 70 295 0.0 3.5 0.00 0.00 0.00 43 1010.6
20260505161048 70 294 0.9 3.5 0.00 0.00 0.00 43 1010.6
20260505160912 70 294 1.7 3.5 0.00 0.00 0.00 43 1010.6
20260505160819 69 314 1.7 3.5 0.00 0.00 0.00 43 1010.5
20260505160707 69 288 0.9 3.5 0.00 0.00 0.00 44 1010.5
20260505160629 69 274 0.9 3.5 0.00 0.00 0.00 45 1010.6
20260505160524 69 217 0.9 3.5 0.00 0.00 0.00 42 1010.5
20260505160409 69 217 1.7 3.5 0.00 0.00 0.00 42 1010.5
20260505160322 69 217 1.7 3.5 0.00 0.00 0.00 45 1010.5
20260505160207 69 318 0.9 3.5 0.00 0.00 0.00 45 1010.5
20260505160144 69 313 0.9 3.5 0.00 0.00 0.00 43 1010.5
20260505153320 68 284 0.9 2.6 0.00 0.00 0.00 45 1010.4
20260505153206 68 284 1.7 2.6 0.00 0.00 0.00 44 1010.4
20260505153122 67 283 1.7 2.6 0.00 0.00 0.00 45 1010.4
20260505153023 67 301 0.9 2.6 0.00 0.00 0.00 46 1010.4
20260505152913 67 303 0.9 1.7 0.00 0.00 0.00 46 1010.4
20260505152818 67 311 0.9 1.7 0.00 0.00 0.00 46 1010.4
20260505152714 67 299 0.9 1.7 0.00 0.00 0.00 45 1010.4
20260505152625 67 310 0.9 2.6 0.00 0.00 0.00 44 1010.5
20260505152520 67 310 0.9 2.6 0.00 0.00 0.00 44 1010.5
20260505152409 67 314 0.0 2.6 0.00 0.00 0.00 44 1010.5
20260505152322 67 315 0.9 2.6 0.00 0.00 0.00 45 1010.5
20260505152207 67 314 0.9 2.6 0.00 0.00 0.00 46 1010.5
20260505152151 67 315 0.9 2.6 0.00 0.00 0.00 46 1010.5
20260505152024 67 315 0.9 2.6 0.00 0.00 0.00 45 1010.5
20260505151906 67 308 0.9 2.6 0.00 0.00 0.00 47 1010.5
20260505151819 67 324 1.7 2.6 0.00 0.00 0.00 47 1010.5
20260505151718 67 313 1.7 2.6 0.00 0.00 0.00 45 1010.5
20260505151642 67 324 1.7 2.6 0.00 0.00 0.00 45 1010.5
20260505151517 67 289 0.9 2.6 0.00 0.00 0.00 44 1010.5
20260505151423 67 289 0.9 2.6 0.00 0.00 0.00 45 1010.5
20260505151308 67 289 0.9 3.5 0.00 0.00 0.00 45 1010.5
20260505151207 67 289 0.9 3.5 0.00 0.00 0.00 45 1010.6
20260505151140 67 289 0.9 3.5 0.00 0.00 0.00 46 1010.5
20260505151020 67 289 0.9 3.5 0.00 0.00 0.00 45 1010.5
20260505150906 67 289 1.7 3.5 0.00 0.00 0.00 46 1010.6
20260505150812 67 288 1.7 3.5 0.00 0.00 0.00 45 1010.5
20260505150707 67 289 1.7 3.5 0.00 0.00 0.00 45 1010.5
20260505150622 67 299 1.7 3.5 0.00 0.00 0.00 45 1010.5
20260505150517 67 290 1.7 3.5 0.00 0.00 0.00 45 1010.5
20260505150423 67 287 1.7 3.5 0.00 0.00 0.00 46 1010.5
20260505150308 67 309 1.7 4.3 0.00 0.00 0.00 46 1010.4
20260505150213 67 296 0.9 4.3 0.00 0.00 0.00 46 1010.4
20260505150137 66 294 0.0 4.3 0.00 0.00 0.00 46 1010.4
20260505140641 63 307 0.0 1.7 0.00 0.00 0.00 52 1009.7
20260505140515 62 306 0.0 3.5 0.00 0.00 0.00 51 1009.6
20260505140421 62 307 0.0 3.5 0.00 0.00 0.00 52 1009.6
20260505140323 62 307 0.0 3.5 0.00 0.00 0.00 52 1009.6
20260505140213 62 307 0.9 3.5 0.00 0.00 0.00 52 1009.6
20260505140157 62 306 0.9 3.5 0.00 0.00 0.00 52 1009.6
20260505130208 57 153 0.0 0.9 0.00 0.00 0.00 59 1008.7
20260505130123 57 152 0.0 0.9 0.00 0.00 0.00 59 1008.7
20260505125015 56 152 0.0 4.3 0.00 0.00 0.00 59 1008.6
20260505124907 57 153 0.0 4.3 0.00 0.00 0.00 59 1008.6
20260505124813 57 153 0.0 4.3 0.00 0.00 0.00 59 1008.6
20260505124709 57 152 0.0 4.3 0.00 0.00 0.00 59 1008.6
20260505124623 57 153 0.9 4.3 0.00 0.00 0.00 59 1008.6
20260505124515 57 128 0.9 4.3 0.00 0.00 0.00 59 1008.6
20260505124427 57 139 1.7 4.3 0.00 0.00 0.00 59 1008.6
20260505124312 57 159 2.6 4.3 0.00 0.00 0.00 59 1008.6
20260505124207 57 145 2.6 4.3 0.00 0.00 0.00 59 1008.5
20260505124139 58 150 2.6 4.3 0.00 0.00 0.00 59 1008.5
20260505124018 58 127 2.6 4.3 0.00 0.00 0.00 58 1008.5
20260505123924 59 141 1.7 3.5 0.00 0.00 0.00 59 1008.5
20260505123809 59 122 1.7 2.6 0.00 0.00 0.00 56 1008.4
20260505123705 59 141 1.7 2.6 0.00 0.00 0.00 55 1008.4
20260505123616 60 61 0.9 1.7 0.00 0.00 0.00 55 1008.3
20260505123538 60 61 0.9 2.6 0.00 0.00 0.00 54 1008.3
20260505123434 60 314 0.0 3.5 0.00 0.00 0.00 53 1008.2
20260505123329 60 314 0.0 3.5 0.00 0.00 0.00 53 1008.2
20260505123215 60 314 0.0 3.5 0.00 0.00 0.00 53 1008.2
20260505123130 60 314 0.0 3.5 0.00 0.00 0.00 52 1008.2
20260505123031 60 314 0.0 3.5 0.00 0.00 0.00 52 1008.2
20260505122916 61 314 0.9 3.5 0.00 0.00 0.00 51 1008.2
20260505122817 61 314 1.7 5.2 0.00 0.00 0.00 51 1008.2
20260505122734 61 276 1.7 6.1 0.00 0.00 0.00 51 1008.1
20260505122645 61 313 1.7 6.1 0.00 0.00 0.00 51 1008.2
20260505122546 61 320 1.7 6.1 0.00 0.00 0.00 51 1008.1
20260505122430 61 320 1.7 6.1 0.00 0.00 0.00 51 1008.1
20260505122334 61 313 1.7 7.0 0.00 0.00 0.00 50 1008.1
20260505122219 62 291 2.6 7.0 0.00 0.00 0.00 50 1008.2
20260505122203 62 297 2.6 7.0 0.00 0.00 0.00 50 1008.2
20260505122020 62 309 3.5 7.0 0.00 0.00 0.00 49 1008.1
20260505121925 62 293 3.5 7.0 0.00 0.00 0.00 49 1008.1
20260505121838 62 283 3.5 7.0 0.00 0.00 0.00 49 1008.1
20260505121734 62 287 3.5 7.0 0.00 0.00 0.00 49 1008.1
20260505121634 61 295 3.5 7.0 0.00 0.00 0.00 49 1008.1
20260505121548 61 296 3.5 7.0 0.00 0.00 0.00 50 1008.1
20260505121431 61 335 3.5 7.0 0.00 0.00 0.00 50 1008.0
20260505121320 61 330 2.6 7.0 0.00 0.00 0.00 50 1008.0
20260505121206 61 212 2.6 7.0 0.00 0.00 0.00 50 1008.0
20260505121122 61 291 2.6 7.0 0.00 0.00 0.00 50 1008.0
20260505121044 61 323 3.5 7.0 0.00 0.00 0.00 51 1008.0
20260505120920 61 320 2.6 7.0 0.00 0.00 0.00 51 1008.0
20260505120832 60 283 1.7 7.8 0.00 0.00 0.00 52 1008.0
20260505120729 60 202 1.7 8.7 0.00 0.00 0.00 52 1008.0
20260505120619 60 287 0.9 8.7 0.00 0.00 0.00 52 1008.0
20260505120513 60 68 0.9 10.4 0.00 0.00 0.00 53 1007.9
20260505120426 59 313 0.9 10.4 0.00 0.00 0.00 53 1007.9
20260505120323 59 328 0.9 10.4 0.00 0.00 0.00 54 1007.9
20260505120208 58 324 1.7 10.4 0.00 0.00 0.00 54 1008.0
20260505120153 58 308 3.5 10.4 0.00 0.00 0.00 55 1007.9
20260505120010 57 212 6.1 10.4 0.00 0.00 0.00 57 1007.8
20260505115916 57 102 7.8 10.4 0.00 0.00 0.00 59 1007.8
20260505115849 57 139 7.8 10.4 0.00 0.00 0.00 59 1007.8
20260505115713 57 151 7.0 9.6 0.00 0.00 0.00 59 1007.7
20260505115657 57 139 6.1 8.7 0.00 0.00 0.00 58 1007.7
20260505115531 58 145 4.3 7.0 0.00 0.00 0.00 57 1007.8
20260505115419 58 151 3.5 7.0 0.00 0.00 0.00 57 1007.8
20260505115331 59 117 3.5 7.0 0.00 0.00 0.00 56 1007.7
20260505115209 60 117 3.5 7.0 0.00 0.00 0.00 55 1007.7
20260505115132 60 103 2.6 7.0 0.00 0.00 0.00 54 1007.7
20260505115006 61 101 0.0 2.6 0.00 0.00 0.00 51 1007.6
20260505114939 61 310 0.0 3.5 0.00 0.00 0.00 50 1007.5
20260505114807 61 310 0.0 3.5 0.00 0.00 0.00 50 1007.5
20260505114740 61 310 0.0 3.5 0.00 0.00 0.00 50 1007.4
20260505114703 61 309 0.0 3.5 0.00 0.00 0.00 50 1007.4
20260505114517 61 310 0.0 3.5 0.00 0.00 0.00 50 1007.3
20260505114422 61 310 0.9 3.5 0.00 0.00 0.00 50 1007.4
20260505114308 61 310 1.7 3.5 0.00 0.00 0.00 50 1007.2
20260505114208 61 297 1.7 3.5 0.00 0.00 0.00 50 1007.3
20260505114119 61 306 1.7 3.5 0.00 0.00 0.00 50 1007.3
20260505114043 61 286 1.7 3.5 0.00 0.00 0.00 50 1007.2
20260505113926 61 312 1.7 3.5 0.00 0.00 0.00 50 1007.2
20260505113812 61 294 1.7 3.5 0.00 0.00 0.00 50 1007.2
20260505113709 61 301 1.7 4.3 0.00 0.00 0.00 50 1007.2
20260505113624 61 309 1.7 4.3 0.00 0.00 0.00 50 1007.2
20260505113539 61 287 1.7 4.3 0.00 0.00 0.00 50 1007.2
20260505113421 61 300 2.6 4.3 0.00 0.00 0.00 50 1007.2
20260505113307 61 304 2.6 4.3 0.00 0.00 0.00 50 1007.2
20260505113213 61 288 1.7 4.3 0.00 0.00 0.00 50 1007.3
20260505113135 61 311 1.7 4.3 0.00 0.00 0.00 50 1007.3
20260505113013 61 291 1.7 4.3 0.00 0.00 0.00 50 1007.3
20260505112939 61 303 1.7 4.3 0.00 0.00 0.00 50 1007.2
20260505112831 61 303 1.7 4.3 0.00 0.00 0.00 50 1007.3
20260505112716 61 313 1.7 4.3 0.00 0.00 0.00 50 1007.2
20260505112632 61 301 1.7 4.3 0.00 0.00 0.00 50 1007.2
20260505112507 61 302 0.9 4.3 0.00 0.00 0.00 50 1007.1
20260505112424 61 304 0.9 4.3 0.00 0.00 0.00 50 1007.2
20260505112326 61 288 1.7 4.3 0.00 0.00 0.00 50 1007.2
20260505112211 61 278 2.6 4.3 0.00 0.00 0.00 50 1007.1
20260505112155 61 295 2.6 4.3 0.00 0.00 0.00 50 1007.1
20260505112008 61 304 2.6 4.3 0.00 0.00 0.00 50 1007.1
20260505111914 61 311 2.6 4.3 0.00 0.00 0.00 50 1007.1
20260505111827 61 310 2.6 4.3 0.00 0.00 0.00 50 1007.2
20260505111717 61 293 2.6 4.3 0.00 0.00 0.00 50 1007.1
20260505111700 61 312 2.6 5.2 0.00 0.00 0.00 50 1007.1
20260505111534 61 312 2.6 4.3 0.00 0.00 0.00 50 1007.1
20260505111418 61 305 2.6 3.5 0.00 0.00 0.00 50 1007.1
20260505111324 61 282 1.7 3.5 0.00 0.00 0.00 50 1007.1
20260505111209 61 293 1.7 3.5 0.00 0.00 0.00 50 1007.1
20260505111136 61 320 2.6 3.5 0.00 0.00 0.00 50 1007.1
20260505111010 61 308 2.6 3.5 0.00 0.00 0.00 50 1007.1
20260505110916 61 291 1.7 3.5 0.00 0.00 0.00 50 1007.0
20260505110829 61 306 1.7 3.5 0.00 0.00 0.00 50 1007.0
20260505110713 61 302 1.7 3.5 0.00 0.00 0.00 50 1007.0
20260505110620 61 302 1.7 3.5 0.00 0.00 0.00 50 1007.0
20260505110515 61 317 1.7 3.5 0.00 0.00 0.00 50 1007.0
20260505110448 61 304 1.7 3.5 0.00 0.00 0.00 50 1007.0
20260505110313 61 285 1.7 3.5 0.00 0.00 0.00 50 1006.9
20260505110229 61 298 2.6 3.5 0.00 0.00 0.00 50 1006.9
20260505110119 61 299 2.6 3.5 0.00 0.00 0.00 50 1007.0
20260505102207 64 310 7.8 12.2 0.00 0.00 0.00 43 1006.6
20260505102152 64 10 7.0 12.2 0.00 0.00 0.00 44 1006.6
20260505102046 64 297 7.0 12.2 0.00 0.00 0.00 44 1006.6
20260505101911 64 283 7.8 12.2 0.00 0.00 0.00 44 1006.7
20260505101816 64 319 7.0 12.2 0.00 0.00 0.00 44 1006.6
20260505101706 64 283 7.0 12.2 0.00 0.00 0.00 44 1006.6
20260505101629 64 317 7.8 12.2 0.00 0.00 0.00 44 1006.5
20260505101523 64 299 7.8 12.2 0.00 0.00 0.00 44 1006.5
20260505101409 64 295 7.8 12.2 0.00 0.00 0.00 44 1006.5
20260505101321 64 335 7.8 12.2 0.00 0.00 0.00 44 1006.5
20260505101211 64 324 8.7 12.2 0.00 0.00 0.00 44 1006.5
20260505101126 64 306 7.8 12.2 0.00 0.00 0.00 44 1006.5
20260505101030 64 266 8.7 13.9 0.00 0.00 0.00 44 1006.3
20260505100914 64 295 8.7 13.9 0.00 0.00 0.00 44 1006.5
20260505100820 64 302 8.7 13.9 0.00 0.00 0.00 44 1006.3
20260505100732 64 260 8.7 13.9 0.00 0.00 0.00 44 1006.2
20260505100632 64 314 7.8 13.9 0.00 0.00 0.00 44 1006.3
20260505100532 64 330 7.8 13.9 0.00 0.00 0.00 44 1006.3
20260505100438 64 291 7.0 13.9 0.00 0.00 0.00 44 1006.2
20260505100323 64 335 7.0 13.9 0.00 0.00 0.00 44 1006.2
20260505100209 64 297 7.0 13.9 0.00 0.00 0.00 44 1006.2
20260505100131 64 283 6.1 13.0 0.00 0.00 0.00 44 1006.1
20260505100009 64 291 7.0 13.0 0.00 0.00 0.00 44 1006.2
20260505095915 64 289 7.8 13.0 0.00 0.00 0.00 44 1006.2
20260505095828 64 306 7.0 13.0 0.00 0.00 0.00 44 1006.1
20260505095734 64 282 6.1 13.0 0.00 0.00 0.00 44 1006.1
20260505095657 64 324 5.2 10.4 0.00 0.00 0.00 45 1006.1
20260505095511 64 308 6.1 10.4 0.00 0.00 0.00 45 1006.1
20260505095420 64 301 6.1 10.4 0.00 0.00 0.00 45 1006.1
20260505095326 64 305 6.1 9.6 0.00 0.00 0.00 45 1006.1
20260505095208 63 274 5.2 9.6 0.00 0.00 0.00 45 1006.1
20260505095141 63 307 5.2 9.6 0.00 0.00 0.00 45 1006.1
20260505095007 63 289 5.2 9.6 0.00 0.00 0.00 46 1006.1
20260505094941 63 317 5.2 9.6 0.00 0.00 0.00 47 1006.1
20260505094827 62 295 5.2 9.6 0.00 0.00 0.00 47 1006.2
20260505094713 62 314 5.2 9.6 0.00 0.00 0.00 47 1006.2
20260505094617 62 302 4.3 9.6 0.00 0.00 0.00 48 1006.2
20260505094518 62 310 3.5 7.8 0.00 0.00 0.00 48 1006.2
20260505094424 62 312 3.5 5.2 0.00 0.00 0.00 49 1006.2
20260505094330 62 287 2.6 5.2 0.00 0.00 0.00 49 1006.2
20260505094212 62 306 2.6 4.3 0.00 0.00 0.00 49 1006.2
20260505094127 62 271 1.7 3.5 0.00 0.00 0.00 49 1006.2
20260505094039 62 268 0.9 2.6 0.00 0.00 0.00 49 1006.2
20260505093930 62 295 0.9 2.6 0.00 0.00 0.00 49 1006.2
20260505093809 62 314 0.9 2.6 0.00 0.00 0.00 49 1006.2
20260505093733 62 300 0.9 2.6 0.00 0.00 0.00 49 1006.2
20260505093624 62 316 0.9 3.5 0.00 0.00 0.00 49 1006.2
20260505093522 62 299 0.9 3.5 0.00 0.00 0.00 49 1006.2
20260505093428 62 299 0.9 3.5 0.00 0.00 0.00 49 1006.2
20260505093320 62 297 0.9 3.5 0.00 0.00 0.00 49 1006.2
20260505093237 61 271 0.9 3.5 0.00 0.00 0.00 49 1006.2
20260505093148 62 314 1.7 3.5 0.00 0.00 0.00 49 1006.3
20260505093022 61 309 1.7 3.5 0.00 0.00 0.00 49 1006.3
20260505092907 61 275 1.7 3.5 0.00 0.00 0.00 49 1006.3
20260505092825 61 291 1.7 7.0 0.00 0.00 0.00 49 1006.3
20260505092710 62 293 1.7 7.0 0.00 0.00 0.00 49 1006.3
20260505092626 62 276 1.7 7.0 0.00 0.00 0.00 49 1006.3
20260505092528 62 294 1.7 7.0 0.00 0.00 0.00 49 1006.3
20260505092413 62 271 1.7 7.0 0.00 0.00 0.00 49 1006.3
20260505092323 62 295 1.7 7.0 0.00 0.00 0.00 49 1006.3
20260505092229 62 283 2.6 7.0 0.00 0.00 0.00 48 1006.3
20260505092129 62 295 2.6 7.0 0.00 0.00 0.00 48 1006.3
20260505092023 62 322 3.5 7.0 0.00 0.00 0.00 48 1006.3
20260505091937 62 308 3.5 7.0 0.00 0.00 0.00 48 1006.3
20260505091842 62 270 3.5 6.1 0.00 0.00 0.00 48 1006.3
20260505091733 62 266 3.5 6.1 0.00 0.00 0.00 48 1006.3
20260505091632 62 290 2.6 5.2 0.00 0.00 0.00 48 1006.3
20260505091533 62 279 2.6 5.2 0.00 0.00 0.00 48 1006.3
20260505091417 62 330 2.6 6.1 0.00 0.00 0.00 48 1006.3
20260505091322 62 314 2.6 6.1 0.00 0.00 0.00 48 1006.3
20260505091226 62 330 2.6 6.1 0.00 0.00 0.00 47 1006.4
20260505091129 62 287 2.6 6.1 0.00 0.00 0.00 47 1006.4
20260505091030 63 318 2.6 6.1 0.00 0.00 0.00 47 1006.4
20260505090919 63 287 2.6 6.1 0.00 0.00 0.00 48 1006.4
20260505090825 63 289 2.6 6.1 0.00 0.00 0.00 47 1006.4
20260505090710 63 279 2.6 7.0 0.00 0.00 0.00 47 1006.5
20260505090633 63 285 2.6 7.0 0.00 0.00 0.00 47 1006.4
20260505090507 63 322 2.6 7.0 0.00 0.00 0.00 47 1006.4
20260505090413 63 293 3.5 7.0 0.00 0.00 0.00 47 1006.4
20260505090311 62 296 3.5 7.0 0.00 0.00 0.00 47 1006.4
20260505090205 62 304 3.5 7.0 0.00 0.00 0.00 47 1006.5
20260505090138 62 339 3.5 7.0 0.00 0.00 0.00 47 1006.5
20260505090011 62 276 3.5 7.0 0.00 0.00 0.00 47 1006.5
20260505085945 62 285 3.5 7.0 0.00 0.00 0.00 47 1006.5
20260505085829 62 321 2.6 7.0 0.00 0.00 0.00 47 1006.5
20260505085708 62 301 2.6 7.0 0.00 0.00 0.00 47 1006.5
20260505085640 62 280 2.6 7.0 0.00 0.00 0.00 47 1006.5
20260505085507 62 280 2.6 5.2 0.00 0.00 0.00 47 1006.5
20260505085419 62 289 2.6 5.2 0.00 0.00 0.00 47 1006.5
20260505085325 62 281 3.5 5.2 0.00 0.00 0.00 47 1006.6
20260505085214 62 283 2.6 5.2 0.00 0.00 0.00 47 1006.6
20260505085138 62 316 3.5 6.1 0.00 0.00 0.00 47 1006.6
20260505085012 62 318 2.6 5.2 0.00 0.00 0.00 47 1006.6
20260505084918 62 307 1.7 5.2 0.00 0.00 0.00 47 1006.5
20260505084824 62 300 2.6 5.2 0.00 0.00 0.00 47 1006.6
20260505084727 62 295 2.6 5.2 0.00 0.00 0.00 47 1006.6
20260505084635 62 303 2.6 5.2 0.00 0.00 0.00 47 1006.6
20260505084510 62 309 1.7 4.3 0.00 0.00 0.00 47 1006.6
20260505084422 62 305 1.7 4.3 0.00 0.00 0.00 47 1006.6
20260505084328 62 291 1.7 4.3 0.00 0.00 0.00 47 1006.6
20260505084213 62 287 1.7 2.6 0.00 0.00 0.00 48 1006.6
20260505084135 62 302 1.7 2.6 0.00 0.00 0.00 48 1006.6
20260505084013 61 268 1.7 2.6 0.00 0.00 0.00 48 1006.7
20260505083919 61 280 1.7 2.6 0.00 0.00 0.00 48 1006.7
20260505083832 61 276 1.7 2.6 0.00 0.00 0.00 48 1006.6
20260505083728 61 308 0.9 1.7 0.00 0.00 0.00 48 1006.6
20260505083639 61 285 0.9 1.7 0.00 0.00 0.00 49 1006.6
20260505083533 61 293 0.9 1.7 0.00 0.00 0.00 49 1006.6
20260505083422 61 293 0.0 1.7 0.00 0.00 0.00 49 1006.6
20260505083308 61 243 0.9 1.7 0.00 0.00 0.00 49 1006.6
20260505083212 61 243 0.9 1.7 0.00 0.00 0.00 49 1006.6
20260505083135 60 243 0.9 1.7 0.00 0.00 0.00 49 1006.6
20260505083037 60 243 0.9 1.7 0.00 0.00 0.00 49 1006.7
20260505082922 60 243 0.9 1.7 0.00 0.00 0.00 49 1006.6
20260505082811 60 243 0.9 1.7 0.00 0.00 0.00 49 1006.6
20260505082735 60 243 0.9 1.7 0.00 0.00 0.00 49 1006.6
20260505082618 60 243 0.9 1.7 0.00 0.00 0.00 49 1006.6
20260505082521 60 243 0.9 1.7 0.00 0.00 0.00 49 1006.6
20260505082406 60 243 0.9 1.7 0.00 0.00 0.00 50 1006.6
20260505082331 60 235 0.9 1.7 0.00 0.00 0.00 50 1006.6
20260505082210 60 235 0.9 1.7 0.00 0.00 0.00 50 1006.6
20260505082121 60 235 0.9 1.7 0.00 0.00 0.00 50 1006.7
20260505082015 60 235 0.9 1.7 0.00 0.00 0.00 50 1006.7
20260505081928 60 235 0.9 1.7 0.00 0.00 0.00 50 1006.6
20260505081834 60 235 0.9 1.7 0.00 0.00 0.00 50 1006.7
20260505081708 60 235 0.9 1.7 0.00 0.00 0.00 50 1006.6
20260505081645 60 237 0.9 1.7 0.00 0.00 0.00 50 1006.6
20260505081518 60 237 0.9 1.7 0.00 0.00 0.00 50 1006.7
20260505081431 60 237 0.9 1.7 0.00 0.00 0.00 49 1006.6
20260505081337 60 237 0.9 1.7 0.00 0.00 0.00 50 1006.6
20260505081212 60 228 0.9 1.7 0.00 0.00 0.00 49 1006.6
20260505081122 60 228 0.9 1.7 0.00 0.00 0.00 49 1006.6
20260505081046 60 228 0.9 1.7 0.00 0.00 0.00 49 1006.6
20260505080913 61 228 0.9 1.7 0.00 0.00 0.00 49 1006.6
20260505080818 61 228 0.9 1.7 0.00 0.00 0.00 49 1006.6
20260505080714 61 234 0.9 1.7 0.00 0.00 0.00 49 1006.6
20260505080625 61 234 0.9 1.7 0.00 0.00 0.00 49 1006.6
20260505080519 61 234 0.9 1.7 0.00 0.00 0.00 49 1006.6
20260505080429 61 239 0.9 1.7 0.00 0.00 0.00 48 1006.6
20260505080321 61 243 0.9 1.7 0.00 0.00 0.00 48 1006.6
20260505080216 61 305 0.9 1.7 0.00 0.00 0.00 48 1006.6
20260505080119 61 305 0.9 1.7 0.00 0.00 0.00 48 1006.6
20260505080021 62 305 0.9 1.7 0.00 0.00 0.00 48 1006.5
20260505075927 62 305 0.9 1.7 0.00 0.00 0.00 47 1006.6
20260505075818 62 305 0.9 1.7 0.00 0.00 0.00 47 1006.6
20260505075727 62 305 0.0 1.7 0.00 0.00 0.00 47 1006.6
20260505075650 62 305 0.0 1.7 0.00 0.00 0.00 47 1006.6
20260505075551 62 305 0.0 1.7 0.00 0.00 0.00 47 1006.6
20260505075415 62 305 0.0 1.7 0.00 0.00 0.00 47 1006.6
20260505075341 62 305 0.0 1.7 0.00 0.00 0.00 47 1006.6
20260505075215 62 305 0.0 1.7 0.00 0.00 0.00 46 1006.6
20260505075149 62 305 0.0 0.9 0.00 0.00 0.00 46 1006.6
20260505075032 62 305 0.0 0.9 0.00 0.00 0.00 46 1006.6
20260505074918 62 305 0.0 0.9 0.00 0.00 0.00 46 1006.6
20260505074824 62 305 0.0 0.9 0.00 0.00 0.00 46 1006.6
20260505074709 63 305 0.0 1.7 0.00 0.00 0.00 46 1006.7
20260505074632 63 305 0.0 1.7 0.00 0.00 0.00 46 1006.7
20260505074510 63 305 0.0 1.7 0.00 0.00 0.00 45 1006.7
20260505074437 63 305 0.0 1.7 0.00 0.00 0.00 45 1006.7
20260505074328 63 305 0.0 1.7 0.00 0.00 0.00 45 1006.7
20260505074234 63 305 0.0 1.7 0.00 0.00 0.00 45 1006.7
20260505074135 63 305 0.0 1.7 0.00 0.00 0.00 45 1006.7
20260505074009 63 298 0.0 1.7 0.00 0.00 0.00 45 1006.7
20260505073934 63 299 0.0 1.7 0.00 0.00 0.00 45 1006.6
20260505073830 63 305 0.0 1.7 0.00 0.00 0.00 45 1006.7
20260505073715 63 305 0.0 1.7 0.00 0.00 0.00 45 1006.7
20260505073637 63 305 0.0 1.7 0.00 0.00 0.00 45 1006.7
20260505073531 63 305 0.0 1.7 0.00 0.00 0.00 45 1006.6
20260505073437 63 305 0.9 1.7 0.00 0.00 0.00 45 1006.6
20260505073349 63 305 0.9 1.7 0.00 0.00 0.00 45 1006.6
20260505073207 63 285 0.9 1.7 0.00 0.00 0.00 45 1006.6
20260505073139 63 285 0.9 1.7 0.00 0.00 0.00 45 1006.6
20260505073014 63 300 0.9 1.7 0.00 0.00 0.00 45 1006.6
20260505072920 63 320 0.9 1.7 0.00 0.00 0.00 45 1006.5
20260505072825 63 302 0.9 1.7 0.00 0.00 0.00 45 1006.5
20260505072730 63 294 0.9 1.7 0.00 0.00 0.00 45 1006.5
20260505072653 63 293 0.9 1.7 0.00 0.00 0.00 45 1006.5
20260505072511 63 284 0.9 1.7 0.00 0.00 0.00 45 1006.5
20260505072423 63 306 0.9 2.6 0.00 0.00 0.00 45 1006.4
20260505072329 63 303 0.9 2.6 0.00 0.00 0.00 45 1006.5
20260505072214 63 312 0.9 2.6 0.00 0.00 0.00 45 1006.4
20260505072136 63 303 0.9 2.6 0.00 0.00 0.00 45 1006.4
20260505072010 63 294 0.9 2.6 0.00 0.00 0.00 45 1006.4
20260505071920 63 286 0.9 2.6 0.00 0.00 0.00 45 1006.4
20260505071805 63 303 0.9 2.6 0.00 0.00 0.00 45 1006.5
20260505071718 63 280 1.7 2.6 0.00 0.00 0.00 45 1006.5
20260505071633 63 294 1.7 2.6 0.00 0.00 0.00 45 1006.5
20260505071535 63 282 0.9 2.6 0.00 0.00 0.00 45 1006.4
20260505071420 63 293 0.9 2.6 0.00 0.00 0.00 45 1006.5
20260505071308 63 306 0.9 1.7 0.00 0.00 0.00 44 1006.4
20260505071221 63 295 0.0 1.7 0.00 0.00 0.00 44 1006.4
20260505071136 63 302 0.0 1.7 0.00 0.00 0.00 44 1006.4
20260505071010 63 286 0.9 1.7 0.00 0.00 0.00 45 1006.5
20260505070923 63 278 0.9 1.7 0.00 0.00 0.00 44 1006.4
20260505070812 63 285 0.9 1.7 0.00 0.00 0.00 44 1006.5
20260505070730 63 285 0.9 1.7 0.00 0.00 0.00 44 1006.5
20260505070620 63 285 0.9 1.7 0.00 0.00 0.00 44 1006.4
20260505070535 63 285 0.9 1.7 0.00 0.00 0.00 44 1006.4
20260505070427 63 285 0.9 1.7 0.00 0.00 0.00 45 1006.4
20260505070313 63 285 0.9 2.6 0.00 0.00 0.00 44 1006.5
20260505070214 63 287 0.9 2.6 0.00 0.00 0.00 45 1006.4
20260505070125 63 281 0.9 2.6 0.00 0.00 0.00 45 1006.4
20260505070020 63 285 0.9 2.6 0.00 0.00 0.00 45 1006.3
20260505065905 63 293 0.9 2.6 0.00 0.00 0.00 45 1006.4
20260505065812 62 290 0.9 2.6 0.00 0.00 0.00 45 1006.3
20260505065706 62 306 0.9 2.6 0.00 0.00 0.00 45 1006.3
20260505065621 62 303 0.9 2.6 0.00 0.00 0.00 45 1006.3
20260505065516 62 288 0.9 1.7 0.00 0.00 0.00 45 1006.3
20260505065429 62 305 0.9 1.7 0.00 0.00 0.00 45 1006.3
20260505065313 62 317 0.9 1.7 0.00 0.00 0.00 45 1006.3
20260505065209 62 291 0.9 1.7 0.00 0.00 0.00 45 1006.3
20260505065119 62 306 0.0 1.7 0.00 0.00 0.00 46 1006.3
20260505065018 62 270 0.0 1.7 0.00 0.00 0.00 46 1006.3
20260505064931 62 270 0.0 1.7 0.00 0.00 0.00 46 1006.3
20260505064809 62 270 0.0 1.7 0.00 0.00 0.00 46 1006.3
20260505064732 62 270 0.0 1.7 0.00 0.00 0.00 46 1006.3
20260505064643 62 270 0.9 1.7 0.00 0.00 0.00 46 1006.3
20260505064518 61 270 0.9 1.7 0.00 0.00 0.00 47 1006.3
20260505064407 61 270 0.9 1.7 0.00 0.00 0.00 47 1006.3
20260505064313 61 274 0.0 1.7 0.00 0.00 0.00 47 1006.4
20260505064219 61 274 0.9 1.7 0.00 0.00 0.00 47 1006.4
20260505064201 61 274 0.9 1.7 0.00 0.00 0.00 47 1006.3
20260505064131 61 274 0.9 1.7 0.00 0.00 0.00 47 1006.3
20260505064032 61 274 0.0 1.7 0.00 0.00 0.00 47 1006.4
20260505063938 61 274 0.9 1.7 0.00 0.00 0.00 47 1006.4
20260505063807 61 274 0.9 1.7 0.00 0.00 0.00 47 1006.4
20260505063713 61 274 0.9 1.7 0.00 0.00 0.00 47 1006.4
20260505063635 62 274 0.9 1.7 0.00 0.00 0.00 47 1006.4
20260505063509 62 274 0.9 1.7 0.00 0.00 0.00 46 1006.4
20260505063415 62 274 0.9 1.7 0.00 0.00 0.00 46 1006.5
20260505063320 62 274 0.9 1.7 0.00 0.00 0.00 46 1006.5
20260505063216 62 278 0.9 1.7 0.00 0.00 0.00 46 1006.4
20260505063131 62 278 0.9 1.7 0.00 0.00 0.00 46 1006.4
20260505063023 62 295 0.9 1.7 0.00 0.00 0.00 46 1006.5
20260505062908 63 295 0.9 1.7 0.00 0.00 0.00 46 1006.4
20260505062821 63 295 0.0 1.7 0.00 0.00 0.00 45 1006.5
20260505062710 63 295 0.0 1.7 0.00 0.00 0.00 45 1006.4
20260505062624 63 295 0.0 1.7 0.00 0.00 0.00 45 1006.4
20260505062527 63 295 0.0 1.7 0.00 0.00 0.00 45 1006.4
20260505062452 64 295 0.0 1.7 0.00 0.00 0.00 45 1006.4
20260505062308 64 295 0.0 1.7 0.00 0.00 0.00 44 1006.4
20260505062220 64 295 0.0 1.7 0.00 0.00 0.00 44 1006.4
20260505062118 64 307 0.0 1.7 0.00 0.00 0.00 44 1006.3
20260505062020 64 307 0.0 1.7 0.00 0.00 0.00 44 1006.3
20260505061926 64 307 0.9 1.7 0.00 0.00 0.00 44 1006.4
20260505061831 64 298 0.9 1.7 0.00 0.00 0.00 43 1006.4
20260505061706 64 301 0.9 1.7 0.00 0.00 0.00 43 1006.4
20260505061618 64 294 0.0 0.9 0.00 0.00 0.00 43 1006.4
20260505061516 64 294 0.0 0.9 0.00 0.00 0.00 43 1006.3
20260505061429 64 295 0.0 4.3 0.00 0.00 0.00 43 1006.3
20260505061315 65 295 0.0 4.3 0.00 0.00 0.00 43 1006.3
20260505061221 65 295 0.0 4.3 0.00 0.00 0.00 43 1006.4
20260505061205 65 294 0.0 4.3 0.00 0.00 0.00 43 1006.4
20260505061015 65 295 0.0 4.3 0.00 0.00 0.00 42 1006.5
20260505060925 65 295 0.0 4.3 0.00 0.00 0.00 42 1006.4
20260505060811 65 295 0.0 4.3 0.00 0.00 0.00 42 1006.4
20260505060706 65 295 0.9 4.3 0.00 0.00 0.00 41 1006.3
20260505060617 65 295 1.7 7.0 0.00 0.00 0.00 41 1006.3
20260505060512 65 305 0.9 7.0 0.00 0.00 0.00 42 1006.3
20260505060445 65 294 0.9 7.0 0.00 0.00 0.00 41 1006.3
20260505060310 65 299 1.7 7.0 0.00 0.00 0.00 41 1006.3
20260505060207 65 308 1.7 7.0 0.00 0.00 0.00 41 1006.3
20260505060129 65 309 1.7 7.0 0.00 0.00 0.00 41 1006.3
20260505060052 65 308 2.6 7.0 0.00 0.00 0.00 42 1006.3
20260505055918 65 298 3.5 7.0 0.00 0.00 0.00 42 1006.3
20260505055814 65 283 3.5 7.0 0.00 0.00 0.00 41 1006.3
20260505055735 65 301 3.5 7.0 0.00 0.00 0.00 42 1006.3
20260505055625 65 299 3.5 7.0 0.00 0.00 0.00 42 1006.2
20260505055520 65 308 3.5 7.0 0.00 0.00 0.00 42 1006.2
20260505055432 66 299 3.5 7.8 0.00 0.00 0.00 41 1006.1